     2.10           OBSERVATION DATA    G (GPS)             RINEX VERSION / TYPE
teqc 2006Apr13 CORS-ADM Account 20060629 05:04:02UTC        PGM / RUN BY / DATE
Solaris 5.9|UltraSparc IIi|cc -xarch=v9 SC5.5|=+-|*Sparc    COMMENT
teqc 2006Apr13 CORS/NGS/NOAA 20060629 05:04:01UTC           COMMENT
BIT 2 OF LLI FLAGS DATA COLLECTED UNDER A/S CONDITION       COMMENT
cnmr                                                        MARKER NAME
50512M001                                                   MARKER NUMBER
Peter Paul Camacho Commonwealth of the Northern Mariana Isl OBSERVER / AGENCY
0220233361 TRIMBLE 4700 7.29                                REC # / TYPE / VERS
0220238086 TRM33429.20+GP UNAV                              ANT # / TYPE
 -5087756.9960  3465027.2461  1664652.3620                  APPROX POSITION XYZ
        0.0000        0.0000        0.0000                  ANTENNA: DELTA H/E/N
     1     1                                                WAVELENGTH FACT L1/2
     7    C1    L1    L2    P1    P2    D1    D2            # / TYPES OF OBSERV
    30.0000                                                 INTERVAL
SNR is mapped to RINEX snr flag value [0-9]                 COMMENT
L1 & L2: min(max(int(snr_dBHz/6), 0), 9)                    COMMENT
Forced Modulo Decimation to 30 seconds                      COMMENT
  2006     6    29     4     0    0.0000000     GPS         TIME OF FIRST OBS
                                                            END OF HEADER
 06  6 29  4  0  0.0000000  0  9G15G18G21G29G26G 5G10G 9G30
  23138910.4124   -6959027.65846  -5412048.43844                  23138908.7394
      1347.2174
  22522840.9874  -13551105.49148 -10552748.24846                  22522838.0404
      3353.2274
  22253067.3744  -14548468.93548 -11329296.17245                  22253064.1314
       141.8994
  22868419.3114  -10533242.82847  -8418267.33845                  22868415.7284
      -140.0594
  22608200.3354  -13105901.90347 -10459419.46946                  22608199.1894
      -441.5384
  21232450.7444  -20182911.52948 -15720452.59946                  21232448.4284
      2822.7004
  23035721.6054  -14254958.56747 -11006662.47045                  23035720.0294
     -2413.3154
  20458362.2164  -27205588.37848 -21178509.59647                  20458359.1284
      -714.5704
  23922170.8294   -5329174.99647  -4136451.22745                  23922169.8194
      3815.2544
 06  6 29  4  0 30.0000000  0  9G15G18G21G29G26G 5G10G 9G30
  23131265.5234   -6999202.08847  -5443353.17544                  23131263.5374
      1331.2654
  22503713.5554  -13651620.73247 -10631071.76546                  22503710.5384
      3347.9014
  22252300.3534  -14552499.00748 -11332436.52445                  22252297.1814
       126.8854
  22869217.6364  -10529048.53447  -8414999.05945                  22869215.0174
      -139.3214
  22610719.4744  -13092663.46247 -10449103.83145                  22610718.2374
      -440.9524
  21216369.0974  -20267423.76748 -15786306.27446                  21216366.4724
      2811.5824
  23049526.7564  -14182414.19447 -10950134.44445                  23049525.1984
     -2422.8814
  20462473.5974  -27183982.81448 -21161674.09147                  20462470.4724
      -725.6644
  23900388.9424   -5443636.14747  -4225641.67345                  23900388.0614
      3815.6984
 06  6 29  4  1  0.0000000  0  9G15G18G21G29G26G 5G10G 9G30
  23123711.4594   -7038895.70246  -5474283.28044                  23123710.6144
      1314.5854
  22484616.5474  -13751974.71547 -10709269.64546                  22484613.7814
      3341.9244
  22251619.0474  -14556075.57948 -11335223.48245                  22251616.3724
       111.1384
  22870011.4744  -10524873.41147  -8411745.72945                  22870010.1474
      -139.3994
  22613235.9724  -13079438.20747 -10438798.44445                  22613234.5444
      -441.1724
  21200350.7214  -20351599.70748 -15851897.89646                  21200348.3304
      2799.7224
  23063385.3074  -14109583.73547 -10893383.46945                  23063384.2464
     -2432.9104
  20466648.2714  -27162044.04848 -21144578.94347                  20466645.3914
      -737.3194
  23878605.7544   -5558108.38047  -4314840.77245                  23878603.9824
      3815.4644
 06  6 29  4  1 30.0000000  0  9G15G18G21G29G26G 5G10G 9G30
  23116252.3754   -7078091.88746  -5504825.74044                  23116251.7134
      1297.9494
  22465554.6244  -13852147.92148 -10787326.65746                  22465551.2844
      3335.8064
  22251028.3344  -14559183.77748 -11337645.47245                  22251024.5544
        95.5224
  22870806.2704  -10520699.35947  -8408493.19745                  22870805.2324
      -139.3214
  22615753.8554  -13066208.78047 -10428489.83345                  22615752.0004
      -441.2304
  21184400.2884  -20435420.07448 -15917212.45746                  21184397.3134
      2787.8224
  23077302.8234  -14036452.13248 -10836397.85445                  23077301.3894
     -2442.9744
  20470889.1754  -27139758.29548 -21127213.42047                  20470886.2714
      -748.8674
  23856824.3164   -5672572.70647  -4404033.70245                  23856822.6554
      3815.0594
 06  6 29  4  2  0.0000000  0  9G15G18G21G29G26G 5G10G 9G30
  23108889.4474   -7116787.35846  -5534978.07044                  23108888.2514
      1281.5484
  22446527.5934  -13952134.18848 -10865238.00146                  22446524.7064
      3329.6784
  22250525.9434  -14561821.47348 -11339700.82045                  22250522.7644
        80.1514
  22871601.3984  -10516521.75647  -8405237.91445                  22871599.1644
      -139.3214
  22618273.0634  -13052970.77447 -10418174.50746                  22618272.6834
      -441.4654
  21168518.3924  -20518878.67948 -15982245.11146                  21168515.8624
      2775.9334
  23091275.8484  -13963017.63647 -10779176.21745                  23091274.7454
     -2452.8474
  20475196.4904  -27117123.90748 -21109576.24247                  20475193.1714
      -760.3034
  23835044.7794   -5787023.56047  -4493216.13645                  23835043.8474
      3814.7274
 06  6 29  4  2 30.0000000  0  9G15G18G21G29G26G 5G10G 9G30
  23101620.0794   -7154989.79146  -5564746.22044                  23101617.8114
      1264.8294
  22427535.1224  -14051938.66348 -10943007.67646                  22427532.5584
      3323.5214
  22250112.3104  -14563997.86248 -11341396.73246                  22250108.7494
        64.5804
  22872395.1584  -10512346.79647  -8401984.68545                  22872393.8044
      -139.4734
  22620792.4694  -13039731.16247 -10407857.94545                  22620789.9964
      -441.7634
  21152704.6924  -20601980.29348 -16046999.59447                  21152702.1694
      2763.7114
  23105306.4604  -13889289.67947 -10721725.90845                  23105304.6814
     -2462.8424
  20479568.1694  -27094151.19148 -21091675.43547                  20479564.9674
      -771.6854
  23813266.8924   -5901465.45947  -4582391.58544                  23813265.7524
      3814.2434
 06  6 29  4  3  0.0000000  0  9G15G18G21G29G26G 5G10G 9G30
  23094445.1744   -7192691.03246  -5594123.76744                  23094443.5324
      1248.1154
  22408580.1104  -14151549.91848 -11020626.80346                  22408576.7214
      3316.9734
  22249786.7754  -14565706.70948 -11342728.30245                  22249783.9844
        49.0874
  22873191.1504  -10508165.39047  -8398726.46645                  22873187.9014
      -139.6534
  22623313.9644  -13026480.90447 -10397533.11145                  22623311.7724
      -442.0024
  21136960.7124  -20684714.25648 -16111467.58846                  21136958.7114
      2751.4944
  23119393.8084  -13815261.87247 -10664041.92345                  23119391.4484
     -2472.7204
  20484005.1034  -27070834.08948 -21073506.27347                  20484001.6284
      -783.1054
  23791492.9294   -6015887.87847  -4671551.81445                  23791492.1134
      3813.5014
 06  6 29  4  3 30.0000000  0  9G15G18G21G29G26G 5G10G 9G30
  23087365.9144   -7229897.41846  -5623115.77544                  23087364.2794
      1231.7774
  22389660.6524  -14250971.71948 -11098098.29246                  22389657.3034
      3310.6204
  22249549.2454  -14566955.48448 -11343701.40745                  22249546.4914
        33.6434
  22873987.0294  -10503982.14647  -8395466.83045                  22873984.1494
      -139.7024
  22625836.5034  -13013225.32247 -10387204.07646                  22625835.2734
      -442.2364
  21121286.3564  -20767083.67548 -16175651.53746                  21121284.1304
      2739.2434
  23133536.3434  -13740941.86147 -10606130.27145                  23133534.4874
     -2482.4764
  20488506.1794  -27047181.34048 -21055075.57847                  20488503.6974
      -794.2774
  23769722.1954   -6130294.64047  -4760699.90845                  23769721.4134
      3813.0224
 06  6 29  4  4  0.0000000  0  9G15G18G21G29G26G 5G10G 9G30
  23080380.4134   -7266604.30646  -5651718.51544                  23080378.9244
      1215.4494
  22370778.4034  -14350196.53548 -11175416.32046                  22370775.2604
      3304.3514
  22249399.6644  -14567741.47548 -11344313.87345                  22249396.7634
        18.6914
  22874784.7664  -10499791.20447  -8392201.18845                  22874781.6554
      -139.7614
  22628361.1434  -12999958.80447 -10376866.55745                  22628358.4994
      -442.2314
  21105682.9474  -20849081.33948 -16239545.80546                  21105679.9914
      2727.2364
  23147735.0364  -13666326.91547 -10547988.79645                  23147733.3764
     -2491.9044
  20493071.7044  -27023190.29548 -21036381.25447                  20493068.4414
      -805.1074
  23747955.5434   -6244678.08647  -4849829.81244                  23747954.0674
      3812.7054
 06  6 29  4  4 30.0000000  0  9G15G18G21G29G26G 5G10G 9G30
  23073489.3294   -7302813.91346  -5679933.80844                  23073488.8764
      1198.5644
  22351934.7804  -14449223.86948 -11252580.43846                  22351931.6454
      3297.4564
  22249338.0494  -14568068.14248 -11344568.44445                  22249334.6564
         3.1154
  22875583.2474  -10495593.32347  -8388930.08845                  22875581.0114
      -140.1864
  22630887.6844  -12986682.62647 -10366521.50446                  22630885.3144
      -442.8374
  21090149.5934  -20930706.59348 -16303149.88947                  21090147.5134
      2714.4484
  23161989.3404  -13591420.72347 -10489620.36645                  23161988.1914
     -2501.9094
  20497700.3594  -26998865.46348 -21017426.84847                  20497697.6374
      -816.4654
  23726193.8434   -6359038.02947  -4938941.40345                  23726193.0924
      3811.3624
 06  6 29  4  5  0.0000000  0  9G15G18G21G29G26G 5G10G 9G30
  23066695.1784   -7338521.92746  -5707758.20944                  23066693.1164
      1181.7924
  22333128.7974  -14548046.33748 -11329584.92346                  22333126.0224
      3290.5574
  22249364.0084  -14567932.87448 -11344463.06045                  22249359.6194
       -12.2414
  22876384.0274  -10491382.81547  -8385649.19645                  22876382.2944
      -140.5184
  22633416.8494  -12973391.34747 -10356164.67546                  22633414.0524
      -443.3794
  21074689.8424  -21011952.08148 -16366458.03046                  21074686.8804
      2701.7384
  23176298.7304  -13516220.70347 -10431023.00145                  23176297.6924
     -2511.5824
  20502392.7614  -26974204.68648 -20998210.64647                  20502390.0914
      -827.6274
  23704437.2424   -6473367.34347  -5028029.06045                  23704437.0684
      3810.3564
 06  6 29  4  5 30.0000000  0  9G15G18G21G29G26G 5G10G 9G30
  23059994.5024   -7373731.69347  -5735194.41544                  23059993.2014
      1165.4304
  22314362.4924  -14646664.44848 -11406430.17246                  22314359.5174
      3283.8574
  22249476.2014  -14567340.48648 -11344001.48445                  22249473.1434
       -27.3444
  22877188.0134  -10487161.51447  -8382359.88745                  22877185.5244
      -140.9624
  22635948.1334  -12960087.32847 -10345797.93946                  22635946.5314
      -443.6914
  21059301.1414  -21092818.40648 -16429470.72947                  21059298.3074
      2689.2244
  23190664.2684  -13440731.60247 -10372200.35945                  23190662.6954
     -2521.1384
  20507148.3664  -26949213.89448 -20978737.30347                  20507145.6534
      -838.4864
  23682687.2194   -6587666.40747  -5117093.22945                  23682686.2764
      3809.4824
 06  6 29  4  6  0.0000000  0  9G15G18G21G29G26G 5G10G 9G30
  23053388.5814   -7408446.67147  -5762245.03844                  23053386.4554
      1149.0094
  22295635.2524  -14745078.52448 -11483116.43546                  22295631.9994
      3277.0954
  22249674.9804  -14566296.29748 -11343187.84245                  22249671.7154
       -42.1834
  22877993.1244  -10482931.34047  -8379063.64745                  22877990.8784
      -141.0844
  22638481.7904  -12946772.79447 -10335422.98446                  22638480.3084
      -443.8724
  21043984.8884  -21173305.99848 -16492188.31346                  21043982.5884
      2676.6754
  23205083.2004  -13364958.35147 -10313156.33145                  23205081.9284
     -2530.4644
  20511965.9984  -26923897.67648 -20959010.38147                  20511963.3054
      -849.2334
  23660942.6364   -6701936.11947  -5206134.52445                  23660940.3024
      3808.5304
 06  6 29  4  6 30.0000000  0  9G15G18G21G29G26G 5G10G 9G30
  23046876.8834   -7442667.62046  -5788910.72444                  23046875.1234
      1132.5684
  22276947.1084  -14843286.13448 -11559641.81046                  22276944.1824
      3270.3474
  22249959.8214  -14564802.37248 -11342023.75645                  22249956.0394
       -56.9974
  22878799.8354  -10478691.47247  -8375759.87245                  22878797.9414
      -141.3134
  22641017.7704  -12933447.43148 -10325039.61846                  22641015.8404
      -444.1314
  21028740.7184  -21253412.78648 -16554609.16746                  21028737.9944
      2664.0234
  23219556.5954  -13288903.34247 -10253892.72345                  23219555.0074
     -2539.6884
  20516844.5894  -26898259.79848 -20939032.82647                  20516842.1014
      -859.7714
  23639203.6854   -6816174.13847  -5295151.13545                  23639202.1714
      3807.6474
 06  6 29  4  7  0.0000000  0  9G15G18G21G29G26G 5G10G 9G30
  23040457.6064   -7476394.17746  -5815191.15744                  23040456.0414
      1115.8354
  22258298.3344  -14941283.84848 -11636003.63346                  22258295.7454
      3262.8664
  22250328.9464  -14562859.33548 -11340509.72245                  22250325.1624
       -72.3294
  22879608.9704  -10474439.78747  -8372446.87745                  22879607.3024
      -142.0314
  22643556.1404  -12920109.47548 -10314646.42746                  22643553.6394
      -444.9414
  21013570.4724  -21333135.24948 -16616730.55447                  21013567.4894
      2650.8504
  23234082.2874  -13212567.52047 -10194410.30845                  23234080.8154
     -2549.3214
  20521784.1504  -26872301.50848 -20918805.59347                  20521781.7644
      -870.7234
  23617471.6934   -6930377.18047  -5384140.48345                  23617469.5574
      3806.0204
 06  6 29  4  7 30.0000000  0  9G15G18G21G29G26G 5G10G 9G30
  23034133.9934   -7509628.30547  -5841087.88444                  23034132.7834
      1099.4094
  22239690.2454  -15039070.61548 -11712201.08646                  22239687.4064
      3255.8254
  22250783.5214  -14560471.03747 -11338648.74146                  22250780.0244
       -87.2074
  22880419.9704  -10470176.84147  -8369125.10045                  22880418.0254
      -142.5294
  22646095.8984  -12906759.96747 -10304244.23945                  22646093.8344
      -445.4154
  20998473.1394  -21412472.67348 -16678551.90246                  20998470.1254
      2637.9304
  23248661.7504  -13135954.82347 -10134712.17345                  23248660.2754
     -2558.5794
  20526784.0674  -26846026.95448 -20898331.93047                  20526781.4854
      -881.2504
  23595746.1554   -7044544.21847  -5473101.78045                  23595743.9714
      3804.7274
 06  6 29  4  8  0.0000000  0  9G15G18G21G29G26G 5G10G 9G30
  23027904.6944   -7542363.26946  -5866595.64344                  23027902.6004
      1082.9644
  22221123.6984  -15136636.57648 -11788226.49546                  22221121.0784
      3248.4914
  22251323.7584  -14557632.03548 -11336436.52745                  22251320.4294
      -102.0954
  22881235.1644  -10465894.15347  -8365787.96245                  22881233.2344
      -143.1304
  22648640.2554  -12893390.83547 -10293826.75145                  22648638.7594
      -445.9574
  20983450.7884  -21491415.09248 -16740065.45546                  20983448.3744
      2624.8974
  23263294.4604  -13059059.57747 -10074793.85845                  23263293.2104
     -2567.8614
  20531844.9684  -26819431.37748 -20877608.10547                  20531842.6044
      -891.7684
  23574029.6514   -7158665.93147  -5562027.69945                  23574028.1754
      3803.3544
 06  6 29  4  8 30.0000000  0  9G15G18G21G29G26G 5G10G 9G30
  23021769.9354   -7574600.72546  -5891715.74344                  23021769.2504
      1066.3874
  22202599.8704  -15233980.37448 -11864078.78046                  22202597.0234
      3241.1724
  22251948.8314  -14554345.69648 -11333875.77045                  22251946.4194
      -116.8654
  22882054.1774  -10461591.77847  -8362435.45645                  22882051.5794
      -143.6624
  22651188.0974  -12880002.42947 -10283394.24745                  22651186.2884
      -446.4604
  20968504.2104  -21569961.22348 -16801270.21346                  20968500.9284
      2611.7294
  23277980.7074  -12981884.94447 -10014657.82645                  23277978.7844
     -2577.0314
  20536966.3474  -26792518.15148 -20856636.78347                  20536964.3064
      -902.1784
  23552321.7994   -7272740.54847  -5650916.97645                  23552319.8944
      3801.8804
 06  6 29  4  9  0.0000000  0  9G15G18G21G29G26G 5G10G 9G30
  23015730.3824   -7606341.32347  -5916448.67644                  23015728.2614
      1049.7224
  22184118.8444  -15331099.49248 -11939755.99446                  22184115.9414
      3233.4624
  22252659.1434  -14550613.92147 -11330967.92845                  22252656.7884
      -131.8414
  22882876.1254  -10457268.64747  -8359066.79145                  22882874.4374
      -144.4534
  22653739.6404  -12866594.09747 -10272946.21245                  22653737.5724
      -447.3244
  20953632.6914  -21648108.75848 -16862164.38647                  20953630.3294
      2598.2624
  23292718.9924  -12904433.28847  -9954305.91545                  23292717.4334
     -2586.2554
  20542148.0004  -26765290.25348 -20835420.24947                  20542145.2734
      -912.8324
  23530623.2464   -7386766.63347  -5739768.40445                  23530621.8094
      3800.0684
 06  6 29  4  9 30.0000000  0  9G15G18G21G29G26G 5G10G 9G30
  23009783.6384   -7637594.34747  -5940801.68844                  23009781.8784
      1033.5944
  22165679.0354  -15428000.22748 -12015263.02346                  22165676.2844
      3226.3234
  22253451.4434  -14546448.24248 -11327721.94645                  22253448.9984
      -146.1724
  22883701.0374  -10452932.49947  -8355687.97545                  22883699.5074
      -144.6874
  22656293.5314  -12853174.15347 -10262489.12045                  22656291.3204
      -447.5054
  20938836.6224  -21725864.27648 -16922753.09146                  20938833.6194
      2585.2984
  23307507.7954  -12826715.41947  -9893746.59645                  23307506.3394
     -2595.0544
  20547386.8364  -26737759.02848 -20813967.35947                  20547384.2584
      -922.7984
  23508932.6444   -7500749.92847  -5828586.48545                  23508931.1954
      3798.6474
 06  6 29  4 10  0.0000000  0  9G15G18G21G29G26G 5G10G 9G30
  23003929.7114   -7668352.03147  -5964768.73044                  23003928.5204
      1016.8514
  22147283.2904  -15524671.36247 -12090591.16546                  22147280.6874
      3218.4234
  22254329.0784  -14541841.62648 -11324132.39245                  22254325.4144
      -161.0254
  22884531.4114  -10448573.63547  -8352291.47845                  22884528.8324
      -145.8354
  22658850.8184  -12839733.05947 -10252015.56046                  22658849.7564
      -448.4864
  20924116.8934  -21803216.67848 -16983027.67446                  20924113.9444
      2571.5774
  23322349.3444  -12748724.73747  -9832974.67845                  23322347.4034
     -2604.3564
  20552684.7794  -26709918.69948 -20792273.62147                  20552682.3144
      -933.2184
  23487252.4974   -7614679.28047  -5917362.56145                  23487250.9824
      3796.6014
 06  6 29  4 10 30.0000000  0  9G15G18G21G29G26G 5G10G 9G30
  22998170.7464   -7698619.21747  -5988353.54344                  22998169.3514
      1000.7814
  22128930.3164  -15621114.38048 -12165741.52646                  22128927.7744
      3211.0114
  22255288.0534  -14536800.60048 -11320204.33445                  22255284.8124
      -175.2344
  22885363.8714  -10444195.05347  -8348879.58145                  22885362.0644
      -146.2994
  22661412.1174  -12826274.37147 -10241528.27446                  22661409.8464
      -448.9014
  20909473.3864  -21880167.63048 -17042989.44047                  20909471.0194
      2558.2914
  23337241.0714  -12670467.51747  -9771995.08645                  23337239.5584
     -2612.9054
  20558039.9324  -26681775.73448 -20770344.06247                  20558037.4374
      -943.0964
  23465582.8334   -7728556.51547  -6006097.99645                  23465581.4444
      3795.0444
 06  6 29  4 11  0.0000000  0  9G15G18G21G29G26G 5G10G 9G30
  22992504.5544   -7728395.93647  -6011556.20444                  22992503.0414
       984.3704
  22110622.0874  -15717326.21848 -12240711.76746                  22110618.9844
      3203.0914
  22256329.4254  -14531326.73548 -11315939.01046                  22256326.4374
      -189.7364
  22886201.4744  -10439795.22147  -8345451.14845                  22886199.5694
      -147.1044
  22663976.6584  -12812796.92547 -10231026.37745                  22663974.7564
      -449.6444
  20894907.0444  -21956714.45648 -17102636.30347                  20894904.3304
      2544.6394
  23352184.3034  -12591945.19447  -9710808.92645                  23352182.6024
     -2621.8804
  20563452.8974  -26653332.37348 -20748180.39447                  20563450.1524
      -953.1644
  23443923.0164   -7842379.21447  -6094790.95245                  23443921.4244
      3793.0614
 06  6 29  4 11 30.0000000  0  9G15G18G21G29G26G 5G10G 9G30
  22986933.3904   -7757672.99747  -6034369.50244                  22986931.9544
       967.5544
  22092360.1344  -15813294.23448 -12315492.02246                  22092357.1414
      3194.8094
  22257455.1524  -14525412.21647 -11311330.31745                  22257451.7674
      -204.5564
  22887044.8284  -10435362.92747  -8341997.44545                  22887043.1684
      -148.3894
  22666546.8004  -12799289.75047 -10220501.30645                  22666544.8934
      -450.7574
  20880419.8524  -22032844.73848 -17161958.57847                  20880417.4654
      2530.6354
  23367177.4734  -12513150.34847  -9649410.40745                  23367175.9734
     -2631.1084
  20568923.7514  -26624581.24248 -20725776.90947                  20568921.2874
      -963.5694
  23422275.9534   -7956134.34047  -6183431.26345                  23422274.8064
      3790.6894
 06  6 29  4 12  0.0000000  0  9G15G18G21G29G26G 5G10G 9G30
  22981457.2504   -7786450.92647  -6056793.87444                  22981454.8984
       950.9374
  22074144.7424  -15909016.15948 -12390080.50446                  22074141.3834
      3186.5144
  22258664.0594  -14519059.20448 -11306379.92945                  22258660.5094
      -219.2194
  22887894.8724  -10430896.82347  -8338517.34845                  22887892.5454
      -149.5074
  22669123.5294  -12785752.09847 -10209952.49845                  22669121.3834
      -451.7774
  20866013.0264  -22108555.99348 -17220954.33747                  20866010.0504
      2516.5824
  23382223.6794  -12434084.44047  -9587800.64745                  23382222.1754
     -2640.0594
  20574453.1284  -26595524.50848 -20703135.30847                  20574450.4524
      -973.7064
  23400642.5144   -8069819.19647  -6272016.81145                  23400641.1334
      3788.2034
 06  6 29  4 12 30.0000000  0  9G15G18G21G29G26G 5G10G 9G30
  22976074.1094   -7814734.92047  -6078833.37044                  22976074.0744
       934.4974
  22055975.9824  -16004493.22548 -12464478.20746                  22055972.7054
      3178.4424
  22259955.1344  -14512274.01347 -11301092.77845                  22259951.7974
      -233.4574
  22888750.5434  -10426400.38147  -8335013.64345                  22888748.1194
      -150.4744
  22671704.5604  -12772187.71047 -10199382.82646                  22671703.3654
      -452.6904
  20851684.4544  -22183850.28048 -17279625.19447                  20851681.7754
      2502.7984
  23397319.9174  -12354754.09047  -9525984.85145                  23397317.8364
     -2648.7694
  20580039.4304  -26566169.68748 -20680261.42747                  20580036.3024
      -983.5114
  23379022.1914   -8183436.16947  -6360549.45645                  23379020.5614
      3785.9964
 06  6 29  4 13  0.0000000  0  9G15G18G21G29G26G 5G10G 9G30
  22970786.3814   -7842526.52147  -6100489.17744                  22970784.3604
       918.1104
  22037854.2494  -16099723.76748 -12538683.81646                  22037851.2934
      3170.1854
  22261327.7944  -14505059.93948 -11295471.42445                  22261324.7404
      -247.6564
  22889612.1874  -10421873.11047  -8331485.92445                  22889609.8714
      -151.4554
  22674290.5054  -12758596.71047 -10188792.43545                  22674288.9594
      -453.5694
  20837436.2924  -22258726.18948 -17337970.04847                  20837433.4474
      2488.8234
  23412465.1334  -12275162.41247  -9463965.41845                  23412464.0654
     -2657.4324
  20585681.6284  -26536520.01248 -20657157.78847                  20585678.3794
      -993.2814
  23357414.6454   -8296983.84347  -6449028.12645                  23357413.0154
      3783.6964
 06  6 29  4 13 30.0000000  0  9G15G18G21G29G26G 5G10G 9G30
  22965589.9104   -7869830.56947  -6121765.09644                  22965588.5204
       901.8364
  22019778.9114  -16194709.51848 -12612698.67946                  22019775.9044
      3161.9534
  22262780.6954  -14497422.95047 -11289520.52245                  22262778.1944
      -261.6894
  22890478.7564  -10417317.80347  -8327936.35545                  22890477.0654
      -152.4224
  22676881.4084  -12744982.07347 -10178183.63845                  22676879.3954
      -454.3854
  20823267.0434  -22333185.27548 -17395990.10147                  20823263.8274
      2474.8244
  23427659.3714  -12195315.41547  -9401747.04145                  23427658.5534
     -2666.1184
  20591378.5134  -26506582.16948 -20633829.60647                  20591375.5634
     -1002.8324
  23335819.3394   -8410463.44047  -6537453.72445                  23335818.6604
      3781.3484
 06  6 29  4 14  0.0000000  0  9G15G18G21G29G26G 5G10G 9G30
  22960487.4594   -7896646.78347  -6142660.85045                  22960485.7884
       885.5134
  22001751.0894  -16289446.35948 -12686519.58646                  22001747.7554
      3153.4764
  22264314.6724  -14489364.57447 -11283241.29945                  22264311.2504
      -275.8844
  22891351.9174  -10412732.31647  -8324363.27845                  22891348.9084
      -153.5604
  22679477.0644  -12731342.19347 -10167555.17745                  22679473.5204
      -455.3474
  20809178.1354  -22407224.29448 -17453682.83547                  20809175.4104
      2460.7184
  23442902.2114  -12115214.34347  -9339330.68645                  23442901.0234
     -2674.4294
  20597130.5834  -26476357.24048 -20610277.73247                  20597127.2304
     -1012.5054
  23314238.8004   -8523871.08447  -6625823.27145                  23314237.6104
      3778.8284
 06  6 29  4 14 30.0000000  0  9G15G18G21G29G26G 5G10G 9G30
  22955478.1554   -7922968.59947  -6163171.36345                  22955477.2294
       869.3904
  21983772.4304  -16383924.60648 -12760138.99146                  21983769.1644
      3145.1864
  22265929.5564  -14480879.88848 -11276629.88245                  22265926.1024
      -289.7514
  22892231.0384  -10408108.29347  -8320760.15745                  22892228.9284
      -154.6144
  22682078.7894  -12717669.07147 -10156900.81945                  22682077.2004
      -456.1134
  20795170.1934  -22480833.70548 -17511040.78447                  20795168.1014
      2446.6754
  23458195.1874  -12034854.02447  -9276712.30445                  23458193.4564
     -2682.7884
  20602937.5014  -26445840.54948 -20586498.49247                  20602934.4944
     -1021.8414
  23292673.3494   -8637197.15547  -6714129.24845                  23292671.8324
      3776.4064
 06  6 29  4 15  0.0000000  0  9G15G18G21G29G26G 5G10G 9G30
  22950561.6844   -7948806.18247  -6183304.55944                  22950560.4124
       853.1304
  21965842.0374  -16478151.19048 -12833562.29446                  21965838.2294
      3136.5874
  22267622.9044  -14471979.94748 -11269694.87145                  22267620.4904
      -303.5994
  22893117.0044  -10403453.82947  -8317133.31745                  22893114.7964
      -155.7964
  22684685.5884  -12703970.92348 -10146226.93746                  22684683.3984
      -457.0704
  20781243.5754  -22554020.39448 -17568069.35947                  20781241.1244
      2432.4464
  23473533.1164  -11954245.88047  -9213900.80245                  23473532.5254
     -2691.1724
  20608797.8164  -26415044.81148 -20562501.81947                  20608794.7334
     -1031.2504
  23271122.9144   -8750449.17547  -6802377.52845                  23271121.1984
      3773.7454
 06  6 29  4 15 30.0000000  0  9G15G18G21G29G26G 5G10G 9G30
  22945737.1814   -7974160.75247  -6203061.38944                  22945734.8924
       836.8954
  21947959.9754  -16572123.41848 -12906787.40446                  21947955.8654
      3127.9494
  22269394.9534  -14462667.67747 -11262438.56645                  22269391.8954
      -317.4464
  22894009.2804  -10398767.85647  -8313481.93745                  22894006.3494
      -156.9974
  22687297.6434  -12690247.33548 -10135533.23646                  22687297.0774
      -458.0914
  20767397.1444  -22626782.37748 -17624767.00047                  20767394.6974
      2418.0714
  23488920.0154  -11873392.02247  -9150897.87445                  23488919.3694
     -2699.3654
  20614710.8184  -26383972.56548 -20538289.69947                  20614707.6384
     -1040.4934
  23249586.3704   -8863623.99447  -6890565.64445                  23249585.4264
      3770.9824
 06  6 29  4 16  0.0000000  0  9G15G18G21G29G26G 5G10G 9G30
  22941005.3934   -7999022.79147  -6222434.42244                  22941004.7884
       820.5864
  21930128.2264  -16665828.49748 -12979804.33446                  21930124.3064
      3119.1604
  22271247.1994  -14452935.01048 -11254854.69545                  22271243.7944
      -331.3234
  22894908.7054  -10394038.94847  -8309797.09345                  22894906.8124
      -158.2864
  22689915.9354  -12676487.24147 -10124811.06546                  22689913.9024
      -459.2434
  20753634.3564  -22699107.06948 -17681123.87346                  20753631.5144
      2403.6524
  23504353.5914  -11792284.65547  -9087697.41145                  23504353.5964
     -2707.7254
  20620677.9304  -26352615.61348 -20513855.73547                  20620674.5334
     -1049.8634
  23228066.1044   -8976709.52047  -6978684.18045                  23228065.2964
      3768.1054
 06  6 29  4 16 30.0000000  0  9G15G18G21G29G26G 5G10G 9G30
  22936367.7914   -8023397.57947  -6241427.78144                  22936365.6044
       804.3024
  21912347.2224  -16759268.43048 -13052614.67146                  21912343.1594
      3110.1224
  22273177.5954  -14442788.64648 -11246948.43945                  22273174.4974
      -345.2154
  22895816.3184  -10389270.21247  -8306081.21845                  22895814.2664
      -159.7854
  22692540.8184  -12662694.17648 -10114063.23945                  22692539.2674
      -460.4354
  20739954.2144  -22770996.69748 -17737141.75246                  20739951.2424
      2388.9704
  23519835.3654  -11710930.34647  -9024304.50545                  23519834.9634
     -2715.9524
  20626697.8194  -26320981.28348 -20489205.61347                  20626694.4304
     -1059.2434
  23206563.5734   -9089707.32347  -7066734.34545                  23206562.3704
      3764.9374
 06  6 29  4 17  0.0000000  0  9G15G18G21G29G26G 5G10G 9G30
  22931822.1754   -8047283.57647  -6260040.26144                  22931821.2784
       788.1594
  21894617.6974  -16852437.37648 -13125213.85646                  21894613.7324
      3101.1384
  22275187.2574  -14432228.15548 -11238719.50945                  22275184.5534
      -358.8044
  22896732.2414  -10384457.82847  -8302331.32845                  22896729.9084
      -161.0064
  22695172.0484  -12648864.69448 -10103287.05045                  22695168.9604
      -461.5824
  20726357.6904  -22842446.31548 -17792816.76846                  20726354.9984
      2374.3514
  23535363.5964  -11629328.28247  -8960718.54645                  23535362.5664
     -2724.0924
  20632770.2674  -26289069.28548 -20464339.11447                  20632766.9284
     -1068.2424
  23185078.6144   -9202612.54047  -7154712.36745                  23185077.0124
      3762.0464
 06  6 29  4 17 30.0000000  0  9G15G18G21G29G26G 5G10G 9G30
  22927368.3854   -8070689.18647  -6278278.40644                  22927365.4124
       771.8904
  21876939.2204  -16945340.20148 -13197605.66846                  21876934.6204
      3092.0314
  22277273.8224  -14421263.29448 -11230175.46045                  22277271.0044
      -372.5054
  22897654.3844  -10379608.08347  -8298552.34445                  22897652.6874
      -162.5394
  22697809.4294  -12635005.27848 -10092487.54945                  22697806.8514
      -462.7734
  20712843.8014  -22913461.16148 -17848152.99347                  20712841.1314
      2359.6144
  23550937.7274  -11547488.26447  -8896947.15744                  23550936.2654
     -2732.1874
  20638893.6554  -26256889.62948 -20439264.06047                  20638890.1314
     -1077.3634
  23163609.9154   -9315429.48547  -7242621.65145                  23163608.3964
      3758.8434
 06  6 29  4 18  0.0000000  0  9G15G18G21G29G26G 5G10G 9G30
  22923007.2844   -8093607.40347  -6296136.75844                  22923005.8264
       756.0164
  21859312.8444  -17037966.65848 -13269782.11546                  21859307.7714
      3083.0324
  22279438.5244  -14409888.70648 -11221312.15445                  22279435.0854
      -385.8114
  22898586.8824  -10374711.78947  -8294737.05645                  22898584.3764
      -163.9364
  22700454.3894  -12621107.24147 -10081657.95045                  22700451.7814
      -463.7354
  20699414.9514  -22984031.03048 -17903142.49246                  20699412.2684
      2345.0444
  23566557.6324  -11465404.48047  -8832985.80744                  23566556.6394
     -2740.0294
  20645069.0664  -26224437.36148 -20413976.57647                  20645066.0764
     -1086.0794
  23142160.4644   -9428147.54347  -7330453.84845                  23142159.1264
      3755.7624
 06  6 29  4 18 30.0000000  0  9G15G18G21G29G26G 5G10G 9G30
  22918738.7134   -8116038.66347  -6313615.68444                  22918736.8854
       739.5514
  21841739.8584  -17130313.38548 -13341740.60246                  21841734.1194
      3073.4424
  22281680.6554  -14398106.09748 -11212130.90645                  22281677.5294
      -399.5754
  22899527.2784  -10369767.25247  -8290884.20045                  22899525.4624
      -165.6694
  22703106.5694  -12607169.20048 -10070797.17445                  22703104.7774
      -465.3034
  20686071.1204  -23054153.15148 -17957783.09546                  20686068.5864
      2329.8004
  23582223.9794  -11383078.55947  -8768835.80244                  23582222.5054
     -2748.2574
  20651295.9804  -26191714.15148 -20388477.98647                  20651292.8324
     -1095.3424
  23120730.1574   -9540764.33447  -7418207.14945                  23120728.9124
      3752.1294
 06  6 29  4 19  0.0000000  0  9G15G18G21G29G26G 5G10G 9G30
  22914562.5134   -8137980.91347  -6330713.57944                  22914561.8804
       723.2324
  21824220.9584  -17222374.70948 -13413476.68146                  21824215.2134
      3063.9014
  22284000.4424  -14385914.86848 -11202631.26845                  22283997.4734
      -413.1644
  22900478.5624  -10364770.06647  -8286990.30645                  22900476.5464
      -167.4274
  22705767.1714  -12593187.43647 -10059902.28745                  22705765.5354
      -466.8654
  20672813.5674  -23123822.43948 -18012070.82446                  20672810.6064
      2314.7324
  23597936.5064  -11300509.73347  -8704496.55144                  23597935.1474
     -2756.2994
  20657574.4394  -26158719.82948 -20362768.12447                  20657571.3094
     -1104.3464
  23099320.2594   -9653274.40347  -7505877.26845                  23099318.6084
      3748.6094
 06  6 29  4 19 30.0000000  0  9G15G18G21G29G26G 5G10G 9G30
  22910477.7964   -8159446.48047  -6347439.96844                  22910476.3874
       707.6514
  21806755.2024  -17314159.20448 -13484997.06346                  21806748.6904
      3054.8534
  22286395.8504  -14373328.53448 -11192823.73745                  22286392.6144
      -426.0644
  22901437.7754  -10359730.27447  -8283063.21545                  22901435.6814
      -168.6964
  22708434.4574  -12579172.14648 -10048981.30445                  22708432.5724
      -467.6614
  20659640.3594  -23193047.82848 -18066012.66547                  20659637.8334
      2300.1464
  23613692.5854  -11217711.50247  -8639978.50745                  23613691.5004
     -2763.6724
  20663901.9474  -26125467.77148 -20336857.42547                  20663899.1004
     -1112.5834
  23077929.0574   -9765686.12947  -7593470.80145                  23077927.7824
      3745.3864
 06  6 29  4 20  0.0000000  0  9G15G18G21G29G26G 5G10G 9G30
  22906484.4394   -8180433.95747  -6363793.89744                  22906483.0614
       691.7974
  21789342.5224  -17405662.27148 -13556298.14646                  21789336.0154
      3045.4444
  22288865.6494  -14360347.37447 -11182708.58645                  22288863.7134
      -439.2044
  22902406.1034  -10354644.62847  -8279100.37545                  22902403.3914
      -170.2254
  22711108.8464  -12565120.20547 -10038031.75646                  22711106.5604
      -468.8184
  20646552.4484  -23261825.01048 -18119605.26047                  20646549.7924
      2285.1864
  23629492.1244  -11134683.68147  -8575281.55844                  23629491.1114
     -2771.2994
  20670278.7484  -26091958.83748 -20310746.58747                  20670276.4144
     -1121.0644
  23056557.4594   -9877994.55847  -7680983.80045                  23056555.9104
      3741.9434
 06  6 29  4 20 30.0000000  0  9G15G18G21G29G26G 5G10G 9G30
  22902582.2814   -8200944.25347  -6379775.94344                  22902580.7114
       675.9624
  21771984.4784  -17496880.77448 -13627377.48746                  21771978.4834
      3035.9824
  22291410.9164  -14346973.32247 -11172287.25446                  22291408.4224
      -452.2664
  22903382.3264  -10349511.25447  -8275100.34245                  22903379.7714
      -171.7774
  22713789.3604  -12551030.40447 -10027052.71246                  22713787.8114
      -470.1714
  20633550.7594  -23330151.44948 -18172846.63847                  20633548.0134
      2270.1614
  23645334.9054  -11051428.21047  -8510407.25444                  23645334.0064
     -2778.8524
  20676704.0214  -26058195.27348 -20284437.32147                  20676700.9034
     -1129.5854
  23035205.9844   -9990196.95948  -7768414.21045                  23035204.6264
      3738.3794
 06  6 29  4 21  0.0000000  0  9G15G18G21G29G26G 5G10G 9G30
  22898769.9204   -8220977.21347  -6395386.06844                  22898767.6634
       659.8244
  21754680.3524  -17587810.80648 -13698232.02846                  21754674.9504
      3026.0994
  22294030.7444  -14333207.81748 -11161560.90345                  22294027.3924
      -465.2344
  22904368.4754  -10344327.74947  -8271061.25245                  22904366.1914
      -173.6134
  22716477.7714  -12536900.67748 -10016042.55946                  22716476.8044
      -471.7874
  20620634.9834  -23398023.87448 -18225734.22646                  20620632.0254
      2254.7904
  23661221.1264  -10967945.93647  -8445356.17644                  23661219.4324
     -2786.4994
  20683176.8264  -26024178.53648 -20257930.78047                  20683174.4864
     -1138.1444
  23013875.6994  -10102289.62748  -7855759.08545                  23013874.3674
      3734.4244
 06  6 29  4 21 30.0000000  0  9G15G18G21G29G26G 5G10G 9G30
  22895048.4514   -8240529.67647  -6410621.73644                  22895048.1164
       643.4034
  21737433.3484  -17678445.58448 -13768856.50946                  21737428.7064
      3015.9034
  22296724.6564  -14319048.90648 -11150528.01745                  22296721.8934
      -478.8574
  22905365.9914  -10339088.45747  -8266978.70645                  22905363.3364
      -176.0114
  22719176.0754  -12522725.82448 -10004997.22645                  22719174.1624
      -473.6184
  20607806.7464  -23465435.62548 -18278262.84247                  20607804.2034
      2239.1214
  23677151.4784  -10884234.88346  -8380126.85444                  23677149.3884
     -2794.5124
  20689698.9844  -25989906.09248 -20231224.99447                  20689696.0434
     -1146.9924
  22992566.8664  -10214265.37447  -7943012.86745                  22992565.5804
      3730.2694
 06  6 29  4 22  0.0000000  0  9G15G18G21G29G26G 5G10G 9G30
  22891420.6084   -8259594.26747  -6425477.31144                  22891419.4574
       627.5154
  21720244.2134  -17768773.39548 -13839241.81646                  21720241.0874
      3005.9574
  22299495.7224  -14304490.64848 -11139183.92045                  22299492.4054
      -491.8214
  22906375.0714  -10333783.63447  -8262845.08845                  22906372.8344
      -177.7834
  22721883.0144  -12508496.27647  -9993909.28145                  22721881.2924
      -475.0984
  20595068.3144  -23532376.09348 -18330424.23746                  20595065.5174
      2223.5994
  23693124.4924  -10800288.74947  -8314714.36344                  23693124.1174
     -2802.0024
  20696270.3274  -25955371.95648 -20204315.28347                  20696267.7214
     -1155.3374
  22971283.3714  -10326113.65848  -8030167.34645                  22971280.8534
      3726.1524
 06  6 29  4 22 30.0000000  0  9G15G18G21G29G26G 5G10G 9G30
  22887883.7334   -8278182.70447  -6439961.80744                  22887882.5214
       611.9144
  21703112.5004  -17858802.59648 -13909394.41946                  21703110.9834
      2996.2114
  22302339.5004  -14289545.79647 -11127538.58845                  22302336.0314
      -504.3214
  22907395.5164  -10328422.81047  -8258667.85745                  22907393.5644
      -179.4924
  22724600.5174  -12494221.94147  -9982786.44345                  22724598.8654
      -476.3134
  20582417.6104  -23598853.94348 -18382225.14546                  20582415.2184
      2208.4084
  23709141.9734  -10716120.42246  -8249128.77244                  23709140.5124
     -2809.0584
  20702889.3884  -25920589.84748 -20177212.37347                  20702886.5834
     -1163.2914
  22950021.8124  -10437842.08247  -8117228.40145                  22950020.0124
      3722.5004
 06  6 29  4 23  0.0000000  0  9G15G18G21G29G26G 5G10G 9G30
  22884437.0854   -8296290.51347  -6454071.79144                  22884436.9274
       595.6794
  21686038.8954  -17948524.78048 -13979307.80746                  21686038.2294
      2985.6354
  22305256.9154  -14274211.43048 -11115589.73146                  22305253.8914
      -517.5634
  22908427.3334  -10322998.99847  -8254441.51245                  22908425.2764
      -181.7194
  22727325.8294  -12479896.29747  -9971623.60245                  22727324.3624
      -478.3114
  20569857.2704  -23664861.43748 -18433659.54847                  20569854.4054
      2192.3884
  23725201.5094  -10631726.29547  -8183367.16544                  23725200.6274
     -2816.8074
  20709556.1474  -25885557.21948 -20149914.21847                  20709553.1234
     -1171.8514
  22928785.3534  -10549442.19148  -8204189.45245                  22928783.3484
      3717.9104
 06  6 29  4 23 30.0000000  0  9G15G18G21G29G26G 5G10G 9G30
  22881081.9194   -8313922.53347  -6467811.05044                  22881081.1874
       580.1274
  21669023.6854  -18037941.26448 -14048982.98946                  21669022.6004
      2975.7284
  22308248.1294  -14258493.85848 -11103342.27645                  22308245.5834
      -529.8584
  22909470.9464  -10317514.66047  -8250168.04445                  22909468.8664
      -183.4084
  22730060.9354  -12465522.10848  -9960422.96245                  22730059.6144
      -479.5704
  20557385.6504  -23730400.21848 -18484728.72247                  20557382.7704
      2177.1094
  23741303.9924  -10547112.38946  -8117434.33244                  23741301.4734
     -2823.7404
  20716269.0554  -25850279.43548 -20122425.03847                  20716266.3874
     -1179.5904
  22907572.1734  -10660915.61148  -8291051.82545                  22907570.7094
      3714.0284
 06  6 29  4 24  0.0000000  0  9G15G18G21G29G26G 5G10G 9G30
  22877816.1514   -8331084.71946  -6481184.17444                  22877815.2524
       564.2974
  21652065.8954  -18127053.76448 -14118421.29946                  21652065.0804
      2965.3224
  22311310.8734  -14242400.03548 -11090801.66445                  22311307.6264
      -542.7004
  22910525.3904  -10311972.92747  -8245849.81145                  22910523.4124
      -185.7374
  22732804.7264  -12451103.17147  -9949187.44245                  22732803.2214
      -481.4404
  20545002.8304  -23795472.91948 -18535434.72746                  20544999.4244
      2161.2554
  23757446.0684  -10462285.60447  -8051335.62644                  23757444.3864
     -2831.1624
  20723027.6714  -25814763.78748 -20094750.53047                  20723024.8544
     -1187.9004
  22886383.1024  -10772264.47947  -8377817.11945                  22886381.2614
      3709.5314
 06  6 29  4 24 30.0000000  0  9G15G18G21G29G26G 5G10G 9G30
  22874641.7684   -8347768.92947  -6494184.88344                  22874640.8204
       548.2764
  21635168.3604  -18215850.35248 -14187613.42646                  21635166.9874
      2954.7074
  22314445.9474  -14225923.03348 -11077962.44245                  22314443.3814
      -555.4594
  22911593.2664  -10306363.34047  -8241478.69645                  22911591.2684
      -188.1404
  22735559.6134  -12436629.06647  -9937908.93245                  22735557.4644
      -483.2864
  20532710.2534  -23860067.96048 -18585768.50747                  20532707.7374
      2145.2594
  23773629.3334  -10377238.95946  -7985065.57344                  23773628.6124
     -2838.4524
  20729832.4304  -25779003.45948 -20066885.34047                  20729829.8624
     -1195.9284
  22865220.2664  -10883476.09948  -8464475.47146                  22865218.7684
      3704.8834
 06  6 29  4 25  0.0000000  0  9G15G18G21G29G26G 5G10G 9G30
  22871556.5314   -8363980.16047  -6506817.01544                  22871555.3104
       532.5244
  21618331.0944  -18304332.21648 -14256560.33746                  21618328.6984
      2944.1554
  22317653.1354  -14209069.53748 -11064829.88145                  22317650.3384
      -568.0814
  22912673.2034  -10300688.47747  -8237056.74945                  22912670.9784
      -190.1464
  22738323.3234  -12422102.65447  -9926589.66845                  22738321.4374
      -485.0394
  20520509.0024  -23924187.36548 -18635731.68046                  20520506.9644
      2129.4384
  23789853.7174  -10291978.50646  -7918628.94044                  23789852.5124
     -2845.3664
  20736682.6934  -25743005.10848 -20038834.67747                  20736679.5894
     -1203.7704
  22844083.3814  -10994552.08348  -8551028.15745                  22844081.4594
      3700.2934
 06  6 29  4 25 30.0000000  0  9G15G18G21G29G26G 5G10G 9G30
  22868561.6554   -8379719.94747  -6519081.78144                  22868560.4934
       516.5974
  21601554.2714  -18392496.88848 -14325260.06647                  21601550.9364
      2933.4724
  22320931.3824  -14191842.23348 -11051406.01745                  22320928.6054
      -580.5664
  22913766.2074  -10294947.06647  -8232582.93345                  22913763.7414
      -192.6374
  22741098.4514  -12407523.30148  -9915229.14545                  22741096.2394
      -487.0214
  20508398.4974  -23987829.14348 -18685322.65546                  20508395.8304
      2113.2814
  23806119.0194  -10206506.43347  -7852027.41544                  23806117.9584
     -2852.7304
  20743577.4334  -25706771.47248 -20010600.70547                  20743574.4564
     -1211.7874
  22822972.1524  -11105490.58147  -8637473.68246                  22822970.2714
      3695.5914
 06  6 29  4 26  0.0000000  0  9G15G18G21G29G26G 5G10G 9G30
  22865656.5074   -8394988.17547  -6530979.13944                  22865655.1994
       501.2354
  21584837.8594  -18480339.93048 -14393709.17946                  21584834.7324
      2922.8074
  22324280.9674  -14174242.26548 -11037691.76545                  22324277.7354
      -592.6714
  22914871.1084  -10289136.48447  -8228055.21345                  22914869.3844
      -194.7024
  22743883.6204  -12392888.65747  -9903825.55545                  22743880.5234
      -488.5794
  20496379.6444  -24050990.08348 -18734538.96647                  20496377.2684
      2097.4664
  23822424.0374  -10120823.77847  -7785261.79844                  23822422.7614
     -2859.3994
  20750516.6914  -25670303.80348 -19982184.36747                  20750514.4844
     -1219.2974
  22801888.5234  -11216287.05148  -8723808.54246                  22801886.3414
      3690.9384
 06  6 29  4 26 30.0000000  0  9G15G18G21G29G26G 5G10G 9G30
  22862839.8004   -8409788.79747  -6542512.09144                  22862838.1884
       485.8644
  21568182.7474  -18567861.98148 -14461908.16746                  21568179.3824
      2912.2664
  22327699.0324  -14156274.79648 -11023691.14545                  22327696.7984
      -604.8004
  22915990.2964  -10283258.10947  -8223474.69145                  22915988.3014
      -196.8364
  22746677.7024  -12378200.52148  -9892380.24945                  22746675.9554
      -490.3084
  20484451.5394  -24113670.61648 -18783380.92547                  20484448.8484
      2081.5874
  23838767.0314  -10034935.43747  -7718335.88844                  23838766.7354
     -2866.0744
  20757499.5124  -25633607.09948 -19953589.53947                  20757497.2914
     -1226.7724
  22780831.4704  -11326941.54448  -8810032.76646                  22780830.0394
      3686.3774
 06  6 29  4 27  0.0000000  0  9G15G18G21G29G26G 5G10G 9G30
  22860112.2514   -8424122.99847  -6553681.61244                  22860111.0674
       469.8104
  21551590.0654  -18655060.18848 -14529854.81546                  21551586.6134
      2901.0164
  22331188.4134  -14137942.01647 -11009405.90845                  22331185.3044
      -617.2854
  22917121.8904  -10277310.35247  -8218840.07445                  22917119.8364
      -199.5174
  22749483.5384  -12363457.60248  -9880892.27745                  22749481.4574
      -492.5684
  20472615.5264  -24175868.79848 -18831847.03847                  20472612.6524
      2065.0494
  23855151.2224   -9948843.29347  -7651251.18044                  23855149.5374
     -2873.2624
  20764526.5954  -25596683.54748 -19924817.96047                  20764523.6334
     -1234.6924
  22759802.1754  -11437451.36348  -8896144.26246                  22759800.4154
      3681.0844
 06  6 29  4 27 30.0000000  0  9G15G18G21G29G26G 5G10G 9G30
  22857473.0344   -8437987.28847  -6564484.96944                  22857472.6014
       454.2434
  21535059.4534  -18741926.75448 -14597543.03246                  21535055.9724
      2889.9464
  22334746.5804  -14119241.76647 -10994834.30145                  22334743.4834
      -629.5074
  22918268.5824  -10271287.23747  -8214146.75645                  22918266.1474
      -202.1484
  22752300.7554  -12348653.98548  -9869357.00945                  22752298.8834
      -494.5514
  20460872.8424  -24237577.58848 -18879931.80047                  20460869.8494
      2048.7604
  23871572.8004   -9862544.86647  -7584005.71644                  23871572.0754
     -2880.0644
  20771597.0064  -25559530.87448 -19895867.82647                  20771593.9734
     -1242.2614
  22738802.3144  -11547808.78048  -8982136.99246                  22738800.1384
      3675.9474
 06  6 29  4 28  0.0000000  0  9G15G18G21G29G26G 5G10G 9G30
  22854923.7634   -8451388.07547  -6574927.15944                  22854922.1624
       438.4724
  21518592.1334  -18828463.93648 -14664974.59346                  21518588.7204
      2878.5114
  22338373.7144  -14100181.68448 -10979982.28945                  22338371.0524
      -641.9044
  22919427.4324  -10265192.16247  -8209397.39145                  22919425.5354
      -204.9714
  22755128.0854  -12333793.97347  -9857777.78845                  22755126.8764
      -496.8994
  20449222.6754  -24298800.30648 -18927637.79747                  20449219.5904
      2031.9974
  23888032.5234   -9776047.44647  -7516605.22544                  23888032.2634
     -2887.1394
  20778709.5974  -25522156.69448 -19866745.08347                  20778705.8344
     -1250.0444
  22717830.3064  -11658016.17047  -9068012.81645                  22717828.1534
      3670.5274
 06  6 29  4 28 30.0000000  0  9G15G18G21G29G26G 5G10G 9G30
  22852462.8394   -8464322.53247  -6585005.96645                  22852460.7044
       423.4034
  21502188.4354  -18914664.91848 -14732144.19146                  21502185.5274
      2867.8224
  22342069.0254  -14080760.34447 -10964848.79145                  22342067.5544
      -653.2914
  22920601.5574  -10259019.95047  -8204587.90345                  22920600.4694
      -206.8854
  22757968.0224  -12318872.31548  -9846150.52745                  22757966.4894
      -498.2714
  20437665.8064  -24359530.74348 -18974960.20046                  20437663.3064
      2016.2604
  23904531.0674   -9689349.35247  -7449048.34144                  23904529.8394
     -2893.0474
  20785863.2734  -25484559.41848 -19837448.49147                  20785860.3714
     -1256.8604
  22696887.8074  -11768067.16947  -9153766.79645                  22696885.6334
      3665.8504
 06  6 29  4 29  0.0000000  0  9G15G18G21G29G26G 5G10G 9G30
  22850088.9324   -8476790.63047  -6594721.38344                  22850088.7174
       407.8714
  21485849.8144  -19000525.76948 -14799048.73446                  21485846.1704
      2856.2704
  22345833.3954  -14060978.90947 -10949434.72045                  22345830.9984
      -665.4354
  22921791.9684  -10252767.75047  -8199716.10744                  22921790.0864
      -209.7854
  22760819.6014  -12303886.53048  -9834473.33245                  22760817.7464
      -500.7524
  20426203.5534  -24419765.57648 -19021896.41447                  20426200.9934
      1999.4974
  23921067.3744   -9602451.31947  -7381335.68744                  23921066.8114
     -2899.9224
  20793059.4144  -25446739.69148 -19807978.59647                  20793057.4924
     -1264.4384
  22675976.5184  -11877957.72547  -9239395.73446                  22675974.3094
      3660.2204
 06  6 29  4 29 30.0000000  0  9G15G18G21G29G26G 5G10G 9G30
  22847805.8434   -8488791.13647  -6604072.41445                  22847805.5574
       392.3294
  21469576.8884  -19086041.03348 -14865684.01146                  21469573.2784
      2844.8634
  22349666.8474  -14040837.25647 -10933739.93645                  22349663.7484
      -677.2714
  22922997.8194  -10246431.36747  -8194778.71045                  22922995.8454
      -212.4274
  22763684.2054  -12288833.00148  -9822743.30945                  22763682.0794
      -502.7394
  20414836.2764  -24479500.30748 -19068442.94847                  20414833.4114
      1982.8954
  23937641.4994   -9515352.85247  -7313466.85844                  23937640.5624
     -2906.4794
  20800299.1734  -25408697.62548 -19778335.46647                  20800296.4164
     -1271.6364
  22655096.6094  -11987682.45047  -9324895.46546                  22655094.8994
      3654.8004
 06  6 29  4 30  0.0000000  0  9G15G18G21G29G26G 5G10G 9G30
  22845610.8414   -8500325.68247  -6613060.35545                  22845610.2764
       376.7824
  21453370.1314  -19171208.62148 -14932048.35447                  21453366.0594
      2833.1544
  22353567.6994  -14020338.08547 -10917766.57545                  22353565.0634
      -689.1114
  22924219.5514  -10240009.77046  -8189774.91445                  22924218.0084
      -215.4154
  22766561.8594  -12273711.14748  -9810960.07845                  22766559.7134
      -505.1324
  20403565.0364  -24538733.27948 -19114598.50647                  20403561.8144
      1966.1084
  23954253.2494   -9428056.43947  -7245443.71144                  23954252.4634
     -2913.0764
  20807580.4464  -25370436.10348 -19748521.30847                  20807577.3124
     -1278.8924
  22634248.8194  -12097238.53447  -9410263.79546                  22634246.9424
      3649.1264
 06  6 29  4 30 30.0000000  0  9G15G18G21G29G26G 5G10G 9G30
  22843502.4454   -8511407.00547  -6621695.14344                  22843501.7184
       361.9784
  21437227.9374  -19256036.63348 -14998148.08847                  21437224.0304
      2822.0654
  22357534.2734  -13999495.60947 -10901525.68945                  22357530.9014
      -700.2254
  22925456.6754  -10233513.09646  -8184712.60045                  22925454.4124
      -217.6074
  22769450.9854  -12258531.09948  -9799131.47945                  22769448.9684
      -506.7634
  20392386.6804  -24597473.88848 -19160370.39446                  20392383.8934
      1950.0054
  23970900.8784   -9340575.59147  -7177276.90144                  23970899.5424
     -2918.8964
  20814900.4104  -25331968.96648 -19718546.91047                  20814897.2154
     -1285.4984
  22613431.5704  -12206634.82147  -9495507.60646                  22613429.4854
      3644.0874
 06  6 29  4 31  0.0000000  0 10G15G18G21G29G26G 5G10G 9G30G22
  22841481.3544   -8522030.69947  -6629973.38644                  22841479.9744
       346.3624
  21421151.8904  -19340516.99648 -15063976.93247                  21421147.7764
      2810.0734
  22361565.6144  -13978306.59048 -10885014.77945                  22361563.5354
      -712.1834
  22926708.4724  -10226933.92447  -8179586.02745                  22926706.2624
      -220.8644
  22772351.5844  -12243285.86448  -9787252.09745                  22772349.6944
      -509.3954
  20381303.9414  -24655714.34748 -19205752.54847                  20381301.5524
      1932.9594
  23987583.9144   -9252906.75847  -7108963.60844                  23987582.9464
     -2925.4254
  20822260.1744  -25293292.46448 -19688409.36947                  20822257.0744
     -1292.7344
  22592645.4284  -12315862.74047  -9580620.20046                  22592644.1714
      3638.0814
  24694788.6454     -39762.70946
      3672.3444
 06  6 29  4 31 30.0000000  0 10G15G18G21G29G26G 5G10G 9G30G22
  22839545.0724   -8532202.61547  -6637899.55044                  22839543.3904
       331.6894
  21405141.2814  -19424651.38948 -15129536.18546                  21405137.6024
      2798.7944
  22365663.4074  -13956777.70348 -10868239.03445                  22365660.0134
      -723.1454
  22927975.1524  -10220275.28847  -8174397.51845                  22927973.7724
      -223.1544
  22775264.1964  -12227978.82848  -9775324.56446                  22775262.3964
      -511.2164
  20370316.1724  -24713457.24348 -19250747.00447                  20370312.9754
      1916.5824
  24004300.0804   -9165056.44747  -7040508.94044                  24004300.5464
     -2931.3144
  20829658.4614  -25254413.48148 -19658114.09447                  20829655.6564
     -1299.2384
  22571891.6754  -12424924.06447  -9665603.01046                  22571890.2774
      3632.6664
  24673826.4514    -149922.19346    -98009.09343                  24673823.6464
      3671.8214
 06  6 29  4 32  0.0000000  0 10G15G18G21G29G26G 5G10G 9G30G22
  22837696.1364   -8541919.08046  -6645470.82944                  22837694.6884
       316.4404
  21389198.3334  -19508431.70648 -15194819.54446                  21389194.9404
      2786.9094
  22369824.4334  -13934906.50347 -10851196.55545                  22369822.1174
      -734.6394
  22929258.6704  -10213530.67447  -8169141.99144                  22929256.7704
      -226.2454
  22778190.5974  -12212604.03148  -9763344.22745                  22778188.3364
      -513.5214
  20359423.9524  -24770695.62348 -19295348.32147                  20359420.8524
      1899.5854
  24021053.3094   -9077021.99347  -6971910.78044                  24021052.9584
     -2937.4764
  20837095.9434  -25215329.30148 -19627658.90747                  20837093.7824
     -1306.1234
  22551171.8534  -12533810.54847  -9750449.57546                  22551169.8504
      3626.7434
  24652869.3544    -260048.49446   -183821.73044                  24652866.5744
      3670.2984
 06  6 29  4 32 30.0000000  0 10G15G18G21G29G26G 5G10G 9G30G22
  22835933.4224   -8551182.14647  -6652688.80545                  22835932.8734
       301.0794
  21373323.4734  -19591855.97948 -15259825.45146                  21373319.9114
      2774.7074
  22374051.5704  -13912696.68047 -10833890.22445                  22374048.4854
      -746.0304
  22930558.7694  -10206699.23047  -8163818.84645                  22930556.9874
      -229.2774
  22781129.1944  -12197160.81548  -9751310.57346                  22781127.1174
      -516.0404
  20348627.7394  -24827428.15548 -19339555.48347                  20348624.6534
      1882.5344
  24037840.7224   -8988806.10547  -6903171.19244                  24037838.9474
     -2943.6914
  20844572.2034  -25176042.72648 -19597046.01547                  20844569.5114
     -1313.0184
  22530484.7404  -12642520.82947  -9835158.85246                  22530482.2994
      3620.5184
  24631920.9794    -370139.86646   -269607.12844                  24631917.6274
      3669.0434
 06  6 29  4 33  0.0000000  0 10G15G18G21G29G26G 5G10G 9G30G22
  22834256.6494   -8559992.35047  -6659553.92245                  22834256.2914
       286.1384
  21357516.8864  -19674920.57048 -15324551.09146                  21357513.1954
      2762.8034
  22378341.7924  -13890149.41047 -10816320.91645                  22378339.2654
      -757.2954
  22931875.5884  -10199778.70747  -8158426.25245                  22931873.8884
      -232.2314
  22784081.4014  -12181647.07448  -9739221.97445                  22784079.4704
      -518.3304
  20337929.2174  -24883652.10348 -19383366.34347                  20337926.6754
      1865.5864
  24054662.0824   -8900410.13147  -6834291.26444                  24054660.5784
     -2949.5704
  20852086.5134  -25136555.19848 -19566276.52247                  20852083.6984
     -1319.5904
  22509831.6524  -12751050.80247  -9919727.60046                  22509830.0564
      3614.6484
  24610978.2834    -480193.04746   -355362.74444                  24610974.4664
      3667.8274
 06  6 29  4 33 30.0000000  0 10G15G18G21G29G26G 5G10G 9G30G22
  22832666.5414   -8568351.61347  -6666067.66545                  22832665.9724
       271.1674
  21341779.2704  -19757623.19748 -15388994.67846                  21341775.2254
      2750.6494
  22382696.0974  -13867267.64247 -10798491.01045                  22382693.1414
      -768.3254
  22933209.7824  -10192767.85347  -8152963.30145                  22933208.4884
      -235.3034
  22787047.3214  -12166062.20448  -9727077.94245                  22787045.2064
      -520.7134
  20327327.0244  -24939366.12948 -19426779.84846                  20327324.5794
      1848.6044
  24071517.6984   -8811836.64647  -6765273.04844                  24071515.4604
     -2955.3814
  20859638.4944  -25096869.75648 -19535352.82047                  20859635.7474
     -1326.1624
  22489214.1714  -12859397.86748 -10004153.83646                  22489212.0314
      3608.4334
  24590043.6374    -590206.28846   -441087.31244                  24590039.5654
      3666.3874
 06  6 29  4 34  0.0000000  0 10G15G18G21G29G26G 5G10G 9G30G22
  22831161.0694   -8576262.30547  -6672231.82244                  22831160.0264
       256.1774
  21326110.1584  -19839962.03448 -15453154.80346                  21326106.3274
      2738.4334
  22387113.0854  -13844055.28147 -10780403.47145                  22387110.7034
      -779.3124
  22934561.8674  -10185666.27247  -8147429.63845                  22934559.0454
      -238.1934
  22790026.0834  -12150405.89448  -9714878.24645                  22790024.7004
      -523.1014
  20316822.2344  -24994569.13348 -19469795.15947                  20316819.4314
      1831.4754
  24088405.0954   -8723088.80247  -6696118.97144                  24088404.5134
     -2961.2304
  20867227.5244  -25056989.77448 -19504277.52247                  20867224.1844
     -1332.6614
  22468631.6384  -12967560.46547 -10088436.34746                  22468629.4154
      3602.2264
  24569117.7044    -700178.10446   -526779.52544                  24569112.5064
      3665.0054
 06  6 29  4 34 30.0000000  0 10G15G18G21G29G26G 5G10G 9G30G22
  22829741.2874   -8583726.46947  -6678048.10345                  22829740.5724
       241.4214
  21310511.1474  -19921935.16648 -15517029.95746                  21310507.5324
      2726.3234
  22391592.2584  -13820515.53947 -10762060.84845                  22391590.2134
      -790.0104
  22935930.7774  -10178473.05947  -8141824.58345                  22935927.6374
      -241.1964
  22793019.1734  -12134677.65948  -9702622.49345                  22793016.7384
      -525.4394
  20306414.6684  -25049260.02948 -19512411.43347                  20306412.1454
      1814.5224
  24105326.0054   -8634169.25047  -6626831.09844                  24105325.0424
     -2966.7824
  20874852.7914  -25016917.85748 -19473052.66847                  20874849.6594
     -1338.8184
  22448084.4114  -13075536.74247 -10172573.65346                  22448082.3554
      3596.1474
  24548197.6894    -810107.02546   -612438.34944                  24548193.6264
      3663.6284
 06  6 29  4 35  0.0000000  0 10G15G18G21G29G26G 5G10G 9G30G22
  22828405.7644   -8590739.50946  -6683512.82444                  22828404.4244
       226.1874
  21294983.4844  -20003533.43148 -15580613.00246                  21294979.9384
      2713.5554
  22396134.8944  -13796644.73747 -10743460.24045                  22396132.3924
      -801.2014
  22937318.7544  -10171180.58747  -8136142.20645                  22937316.3984
      -244.8054
  22796027.1624  -12118870.40248  -9690305.15245                  22796025.5334
      -528.2764
  20296106.9244  -25103430.90248 -19554622.48847                  20296103.7774
      1797.0024
  24122280.1424   -8545074.14847  -6557406.42044                  24122279.2984
     -2972.8814
  20882515.2944  -24976650.38948 -19441675.41647                  20882512.2994
     -1345.5964
  22427574.3684  -13183317.70047 -10256558.78146                  22427572.1914
      3589.3704
  24527289.4554    -919984.59947   -698057.16844                  24527284.6074
      3661.7584
 06  6 29  4 35 30.0000000  0 10G15G18G21G29G26G 5G10G 9G30G22
  22827156.5044   -8597308.75647  -6688631.71045                  22827155.4654
       211.6504
  21279526.6634  -20084759.53548 -15643906.03946                  21279523.2644
      2701.3874
  22400738.5794  -13772451.07447 -10724608.04145                  22400736.6224
      -811.7094
  22938724.0514  -10163792.99847  -8130385.69945                  22938722.0794
      -247.7784
  22799049.7074  -12102988.29448  -9677929.50245                  22799047.5084
      -530.6304
  20285896.3604  -25157085.51948 -19596431.26547                  20285893.6904
      1779.8974
  24139266.3214   -8455811.11047  -6487850.94044                  24139266.0214
     -2978.0914
  20890213.3304  -24936195.17748 -19410151.87847                  20890210.9444
     -1351.5144
  22407100.8404  -13290905.02547 -10340393.01346                  22407099.3544
      3583.0224
  24506389.2994   -1029813.79046   -783638.29444                  24506384.9974
      3660.2494
 06  6 29  4 36  0.0000000  0 10G15G18G21G29G26G 5G10G 9G30G22
  22825991.1964   -8603433.43247  -6693404.21645                  22825989.2114
       196.8704
  21264141.9224  -20165608.63548 -15706905.32446                  21264138.0454
      2688.8334
  22405404.4494  -13747934.94347 -10705504.59545                  22405401.9334
      -822.4324
  22940148.7364  -10156306.69147  -8124552.28645                  22940146.5284
      -251.0014
  22802086.7434  -12087028.05548  -9665492.98045                  22802084.8064
      -533.1454
  20275785.3774  -25210219.83948 -19637834.62047                  20275782.5034
      1762.6224
  24156285.5154   -8366380.14547  -6418164.54344                  24156283.7554
     -2983.7114
  20897947.9014  -24895552.60548 -19378482.36047                  20897944.7754
     -1357.7154
  22386665.3454  -13398294.97247 -10424073.43746                  22386663.4114
      3576.5384
  24485499.4894   -1139590.33146   -869178.43044                  24485494.9064
      3658.3994
 06  6 29  4 36 30.0000000  0 10G15G18G21G29G26G 5G10G 9G30G22
  22824909.0484   -8609114.61147  -6697831.08544                  22824908.2114
       181.9294
  21248829.0884  -20246077.70648 -15769608.49446                  21248825.5624
      2675.8304
  22410130.3934  -13723098.35447 -10686151.41145                  22410127.8354
      -833.3014
  22941592.4934  -10148719.45147  -8118640.19045                  22941590.7604
      -254.7614
  22805138.8344  -12070988.09248  -9652994.32745                  22805136.7744
      -536.0504
  20265773.1444  -25262831.67948 -19678830.85347                  20265771.0514
      1744.9564
  24173333.9914   -8276783.26747  -6348348.85444                  24173333.4594
     -2989.3754
  20905716.9964  -24854724.27847 -19346668.09546                  20905714.2864
     -1364.0774
  22366268.1414  -13505484.14348 -10507597.43046                  22366265.5444
      3569.5124
  24464620.2524   -1249311.24847   -954675.17044                  24464615.8744
      3656.3774
 06  6 29  4 37  0.0000000  0 10G15G18G21G29G26G 5G10G 9G30G22
  22823912.1224   -8614354.87347  -6701914.42345                  22823911.6014
       167.5634
  21233588.5404  -20326164.99548 -15832014.14146                  21233584.5144
      2663.3154
  22414916.6264  -13697945.08447 -10666551.48345                  22414914.1314
      -843.5844
  22943056.1534  -10141030.68347  -8112649.02145                  22943053.7274
      -257.8964
  22808206.4134  -12054868.23148  -9640433.40145                  22808204.6674
      -538.4814
  20255861.4884  -25314920.15448 -19719419.27147                  20255858.8654
      1727.6664
  24190415.8544   -8187023.29247  -6278406.11244                  24190414.4604
     -2994.5024
  20913521.2364  -24813713.24048 -19314711.45446                  20913518.6334
     -1369.9464
  22345908.9664  -13612470.06248 -10590963.02846                  22345906.8054
      3562.8814
  24443752.1444   -1358975.08846  -1040127.46344                  24443747.7474
      3654.5314
 06  6 29  4 37 30.0000000  0 10G15G18G21G29G26G 5G10G 9G30G22
  22822996.3044   -8619164.63847  -6705662.30445                  22822994.9754
       152.9794
  21218420.5254  -20405876.68047 -15894127.11746                  21218416.4054
      2650.4834
  22419761.5944  -13672486.64147 -10646713.73045                  22419759.0414
      -853.9164
  22944537.3084  -10133247.90047  -8106584.54045                  22944534.9254
      -261.1964
  22811287.7254  -12038675.93747  -9627816.03745                  22811285.9584
      -541.1824
  20246047.5194  -25366492.58648 -19759605.55947                  20246044.9704
      1710.2984
  24207524.6664   -8097111.33647  -6208344.95144                  24207524.9374
     -2999.8054
  20921357.9944  -24772530.62147 -19282621.10246                  20921355.5854
     -1375.7864
  22325587.5374  -13719259.06848 -10674175.22146                  22325585.3174
      3556.0554
  24422892.7764   -1468588.33446  -1125540.32344                  24422888.6624
      3652.6564
 06  6 29  4 38  0.0000000  0 10G15G18G21G29G26G 5G10G 9G30G22
  22822164.8214   -8623535.31447  -6709068.04245                  22822163.9884
       138.5554
  21203325.7864  -20485199.77648 -15955937.31346                  21203321.7054
      2637.8124
  22424666.0064  -13646715.37947 -10626632.24745                  22424663.7754
      -863.9554
  22946038.3754  -10125359.33447  -8100437.65345                  22946036.0954
      -264.5614
  22814385.1564  -12022399.93047  -9615133.44945                  22814383.1794
      -543.7454
  20236333.9104  -25417536.73048 -19799380.21647                  20236331.2274
      1692.8374
  24224664.9164   -8007039.56647  -6138159.23944                  24224664.6884
     -3004.7954
  20929229.0294  -24731168.25547 -19250390.72346                  20929225.8844
     -1381.4654
  22305306.1454  -13825837.86247 -10757223.58546                  22305304.0954
      3549.3314
  24402046.3934   -1578138.67846  -1210904.16044                  24402041.8414
      3650.6494
 06  6 29  4 38 30.0000000  0 10G15G18G21G29G26G 5G10G 9G30G22
  22821415.4444   -8627471.90547  -6712135.53345                  22821415.1854
       123.7604
  21188304.7764  -20564134.78748 -16017445.08546                  21188300.5314
      2624.5704
  22429628.2664  -13620637.18947 -10606311.61645                  22429626.0564
      -874.5614
  22947558.9624  -10117366.94647  -8094209.84645                  22947556.9934
      -268.3064
  22817497.9764  -12006042.35047  -9602387.26845                  22817496.1164
      -546.7824
  20226720.8964  -25468054.54048 -19838744.72447                  20226717.7764
      1675.0004
  24241835.0004   -7916813.27947  -6067853.12344                  24241833.6524
     -3010.2594
  20937132.9514  -24689631.96547 -19218024.79846                  20937130.1694
     -1387.5734
  22285065.1644  -13932207.52847 -10840108.99646                  22285062.7924
      3541.9484
  24381211.3814   -1687626.88446  -1296219.57344                  24381207.1454
      3648.4284
 06  6 29  4 39  0.0000000  0 10G15G18G21G29G26G 5G10G 9G30G22
  22820748.7004   -8630977.43647  -6714867.10544                  22820748.3654
       109.7904
  21173357.9204  -20642680.38047 -16078649.43546                  21173354.1924
      2611.6504
  22434648.4954  -13594256.63947 -10585755.34745                  22434645.7244
      -884.3164
  22949099.0664  -10109270.63347  -8087901.04944                  22949096.9714
      -271.5584
  22820626.2464  -11989603.39747  -9589577.67945                  22820624.2284
      -549.2684
  20217207.8144  -25518045.83347 -19877698.97147                  20217205.4164
      1657.6324
  24259032.5894   -7826436.17046  -5997429.47144                  24259032.3524
     -3015.0494
  20945069.5184  -24647925.62147 -19185526.35946                  20945066.8394
     -1392.9154
  22264863.7584  -14038366.62648 -10922830.34046                  22264861.6194
      3535.1374
  24360387.9214   -1797052.09746  -1381485.88044                  24360384.5774
      3646.5534
 06  6 29  4 39 30.0000000  0 10G15G18G21G29G26G 5G10G 9G30G22
  22820164.4444   -8634050.95047  -6717262.05444                  22820163.4384
        95.2294
  21158486.0224  -20720831.46248 -16139546.35946                  21158482.4864
      2598.2764
  22439725.8534  -13567573.45347 -10564963.28345                  22439722.8434
      -894.6784
  22950661.0434  -10101066.34347  -8081508.14045                  22950659.1004
      -275.4394
  22823770.2654  -11973079.57047  -9576701.99745                  22823768.5594
      -552.3144
  20207795.8014  -25567506.27148 -19916239.55847                  20207793.1624
      1639.7024
  24276260.1524   -7735907.71347  -5926887.93144                  24276259.3224
     -3020.2054
  20953038.5314  -24606048.70247 -19152894.98746                  20953035.7724
     -1398.7994
  22244703.1194  -14144309.86348 -11005383.47846                  22244700.5824
      3527.6614
  24339576.8524   -1906409.19946  -1466699.13444                  24339573.6214
      3643.8094
 06  6 29  4 40  0.0000000  0 10G15G18G21G29G26G 5G10G 9G30G22
  22819660.8054   -8636694.57347  -6719322.03444                  22819660.0864
        81.1334
  21143690.3034  -20798585.70448 -16200134.06747                  21143686.0654
      2585.3424
  22444860.2404  -13540590.49547 -10543937.59645                  22444858.1554
      -904.2774
  22952244.0684  -10092752.78747  -8075030.09845                  22952240.8844
      -278.7894
  22826931.1764  -11956469.84247  -9563759.36545                  22826929.0714
      -554.8974
  20198485.0364  -25616434.57848 -19954365.50347                  20198481.8284
      1622.2464
  24293515.8314   -7645230.63247  -5856230.54644                  24293515.1114
     -3024.8194
  20961038.8874  -24564004.02447 -19120132.88946                  20961036.4104
     -1404.0724
  22224584.4324  -14250034.25847 -11087766.08146                  22224582.6274
      3520.6404
  24318780.9724   -2015696.12646  -1551857.75444                  24318777.1314
      3641.8944
 06  6 29  4 40 30.0000000  0 10G15G18G21G29G26G 5G10G 9G30G22
  22819240.8914   -8638903.36747  -6721043.19445                  22819240.0734
        66.6504
  21128971.0954  -20875933.74248 -16260405.24946                  21128967.1514
      2571.6854
  22450053.2744  -13513304.05947 -10522675.45945                  22450050.6684
      -914.3804
  22953846.9664  -10084321.92447  -8068460.63845                  22953844.9954
      -282.8034
  22830109.6084  -11939766.60747  -9550743.86945                  22830107.9024
      -558.1694
  20189276.7584  -25664822.62248 -19992070.45247                  20189274.5194
      1604.1364
  24310798.9354   -7554400.51146  -5785453.90043                  24310799.2994
     -3030.0644
  20969073.0544  -24521786.99347 -19087236.51346                  20969070.3364
     -1409.8344
  22204508.8054  -14355531.14747 -11169971.41746                  22204506.5024
      3512.9694
  24297999.5104   -2124904.19846  -1636954.83944                  24297996.5954
      3639.1704
 06  6 29  4 41  0.0000000  0 10G15G18G21G29G26G 5G10G 9G30G22
  22818902.3404   -8640681.51047  -6722428.77945                  22818901.8474
        52.0174
  21114330.0774  -20952875.01048 -16320359.46847                  21114325.8694
      2557.8564
  22455302.2664  -13485719.62847 -10501181.09445                  22455299.4014
      -924.5024
  22955472.0274  -10075774.88047  -8061800.61944                  22955471.7184
      -286.8414
  22833305.5704  -11922970.93147  -9537656.34245                  22833303.7934
      -561.5434
  20180172.1424  -25712671.22148 -20029355.06947                  20180169.1374
      1585.8454
  24328112.3024   -7463422.04347  -5714561.70544                  24328111.7674
     -3035.1274
  20977137.8114  -24479402.31947 -19054209.51646                  20977135.9504
     -1415.6494
  22184477.1594  -14460799.18647 -11251998.42846                  22184475.6714
      3505.0634
  24277232.9994   -2234033.17646  -1721990.35444                  24277229.3044
      3636.3384
 06  6 29  4 41 30.0000000  0 10G15G18G21G29G26G 5G10G 9G30G22
  22818644.1094   -8642037.69947  -6723485.56145                  22818643.3154
        38.1154
  21099764.7914  -21029414.51647 -16380000.63047                  21099760.8234
      2544.4924
  22460606.3634  -13457846.43047 -10479461.74745                  22460603.4124
      -934.0234
  22957120.1404  -10067116.87947  -8055054.11345                  22957119.4474
      -290.5474
  22836518.9534  -11906088.48347  -9524501.19445                  22836516.7274
      -564.2434
  20171168.1014  -25759985.86648 -20066223.62047                  20171164.8304
      1568.1744
  24345451.8134   -7372304.33947  -5643560.96243                  24345451.1934
     -3039.5414
  20985234.6104  -24436858.79547 -19021058.73846                  20985231.5304
     -1420.8304
  22164488.0364  -14565842.60847 -11333850.41146                  22164486.0914
      3497.6034
  24256480.0154   -2343087.73546  -1806967.85444                  24256476.0754
      3633.8874
 06  6 29  4 42  0.0000000  0 10G15G18G21G29G26G 5G10G 9G30G22
  22818466.0934   -8642973.86447  -6724215.05945                  22818465.9074
        23.9404
  21085276.7564  -21105549.79147 -16439326.79246                  21085272.9414
      2530.8454
  22465964.5864  -13429687.48447 -10457519.71744                  22465961.9994
      -943.5844
  22958789.7604  -10058346.69247  -8048220.23945                  22958788.3474
      -294.4294
  22839747.5084  -11889118.61847  -9511277.90645                  22839745.7744
      -567.3054
  20162266.4594  -25806765.28648 -20102675.10647                  20162263.5024
      1550.1664
  24362817.9194   -7281049.96347  -5572453.75443                  24362817.0184
     -3044.3364
  20993359.2354  -24394159.60647 -18987786.65446                  20993356.8734
     -1426.0994
  22144541.9844  -14670659.04147 -11415525.51946                  22144540.4364
      3489.8394
  24235742.0524   -2452065.64946  -1891885.68544                  24235738.2284
      3631.1914
 06  6 29  4 42 30.0000000  0 10G15G18G21G29G26G 5G10G 9G30G22
  22818369.6144   -8643480.46647  -6724609.81645                  22818369.5474
         9.8684
  21070868.2314  -21181266.56248 -16498326.86246                  21070864.8254
      2516.9434
  22471380.1404  -13401234.05247 -10435348.25645                  22471377.1114
      -953.2524
  22960483.2924  -10049451.53747  -8041288.98745                  22960480.9984
      -298.6044
  22842995.7184  -11872048.53247  -9497976.58145                  22842993.6434
      -570.5864
  20153469.1654  -25852996.64948 -20138699.54047                  20153465.9184
      1531.9684
  24380209.6544   -7189649.85246  -5501232.95943                  24380209.7034
     -3048.9754
  21001516.7064  -24351294.96347 -18954385.64946                  21001514.0334
     -1431.4364
  22124642.2344  -14775234.57347 -11497012.92346                  22124639.6224
      3481.8754
  24215021.3344   -2560953.14446  -1976732.96344                  24215017.6634
      3628.1154
 06  6 29  4 43  0.0000000  0 10G15G18G21G29G26G 5G10G 9G30G22
  22818353.2484   -8643566.64247  -6724676.98744                  22818352.8144
        -3.8574
  21056538.3774  -21256569.84147 -16557004.72947                  21056534.7044
      2503.4184
  22476847.8364  -13372496.30447 -10412955.20045                  22476845.5954
      -962.4074
  22962198.7254  -10040437.13147  -8034264.77945                  22962196.9364
      -302.2804
  22846262.4834  -11854884.49247  -9484602.00345                  22846260.2504
      -573.4474
  20144774.4254  -25898685.69648 -20174301.38847                  20144771.6114
      1514.1654
  24397627.9634   -7098113.51246  -5429906.03743                  24397628.8194
     -3053.2324
  21009702.9314  -24308274.85547 -18920863.47746                  21009700.2574
     -1436.3574
  22104786.6774  -14879573.95847 -11578316.29146                  22104784.8194
      3474.2194
  24194315.9434   -2669755.12946  -2061513.65744                  24194313.3604
      3625.4394
 06  6 29  4 43 30.0000000  0 10G15G18G21G29G26G 5G10G 9G30G22
  22818415.5334   -8643237.28147  -6724420.33944                  22818414.9574
       -17.8714
  21042287.3884  -21331459.50148 -16615360.29146                  21042283.9834
      2489.2584
  22482369.9204  -13343479.90747 -10390345.02544                  22482366.7684
      -971.9144
  22963936.2484  -10031305.03247  -8027148.89945                  22963934.4414
      -306.4314
  22849545.9354  -11837628.07747  -9471155.42945                  22849544.3834
      -576.7774
  20136182.9594  -25943834.06848 -20209481.92946                  20136179.7224
      1495.8694
  24415072.5884   -7006446.01446  -5358476.95043                  24415073.2294
     -3057.7834
  21017918.0714  -24265104.35847 -18887224.12346                  21017915.2924
     -1441.5094
  22084976.2604  -14983677.41447 -11659435.82646                  22084974.3964
      3466.0744
  24173628.1814   -2778472.06746  -2146228.02744                  24173625.3654
      3622.3884
 06  6 29  4 44  0.0000000  0 10G15G18G21G29G26G 5G10G 9G30G22
  22818557.9594   -8642491.07047  -6723838.89244                  22818557.0444
       -31.8604
  21028116.3104  -21405929.96147 -16673389.21747                  21028112.9094
      2475.3324
  22487944.8914  -13314184.36947 -10367517.36445                  22487941.2194
      -981.1774
  22965696.9954  -10022050.70747  -8019937.75845                  22965695.4684
      -310.5424
  22852847.6974  -11820275.34347  -9457633.83045                  22852846.4394
      -580.0784
  20127695.3794  -25988437.11948 -20244237.55147                  20127692.1964
      1477.6714
  24432541.2904   -6914646.36247  -5286944.81043                  24432540.8154
     -3062.2464
  21026162.1934  -24221782.43848 -18853466.81346                  21026159.1614
     -1446.5484
  22065212.9674  -15087538.78647 -11740366.72446                  22065211.0494
      3457.9494
  24152957.3064   -2887098.44946  -2230871.90543                  24152953.7774
      3619.3554
 06  6 29  4 44 30.0000000  0 10G15G18G21G29G26G 5G10G 9G30G22
  22818778.7994   -8641329.48047  -6722933.75744                  22818778.6154
       -45.7424
  21014024.9204  -21479978.51548 -16731089.37247                  21014022.0184
      2461.0644
  22493571.8564  -13284612.35447 -10344474.22344                  22493569.2424
      -990.4834
  22967481.9464  -10012672.30447  -8012629.94845                  22967479.6094
      -314.8784
  22856168.8794  -11802824.63347  -9444035.89145                  22856167.0494
      -583.5014
  20119311.7054  -26032493.27248 -20278567.02047                  20119308.4814
      1459.2634
  24450034.3534   -6822716.56246  -5215311.24143                  24450035.4644
     -3066.6064
  21034434.5154  -24178311.02048 -18819592.98746                  21034431.5104
     -1451.6894
  22045495.0594  -15191154.98247 -11821106.60146                  22045492.6334
      3449.5514
  24132304.4244   -2995631.42947  -2315442.95043                  24132300.6524
      3616.0354
 06  6 29  4 45  0.0000000  0 10G15G18G21G29G26G 5G10G 9G30G22
  22819079.5034   -8639750.87547  -6721703.71644                  22819078.4714
       -59.7274
  21000015.2704  -21553598.91248 -16788455.89447                  21000011.6404
      2446.6854
  22499251.7794  -13254763.23847 -10321215.19045                  22499248.0384
      -999.6634
  22969290.6014  -10003164.84147  -8005221.53545                  22969289.0294
      -319.2294
  22859508.6734  -11785271.13847  -9430357.83645                  22859507.4434
      -586.9824
  20111032.9564  -26075997.56148 -20312466.46447                  20111030.5234
      1440.7764
  24467553.8134   -6730655.45646  -5143575.44543                  24467554.0764
     -3071.0354
  21042735.6124  -24134688.73348 -18785601.60746                  21042732.6604
     -1456.6944
  22025825.1184  -15294520.29247 -11901650.95146                  22025822.9594
      3441.1044
  24111669.6564   -3104065.30146  -2399936.77244                  24111666.6014
      3612.5884
 06  6 29  4 45 30.0000000  0 10G15G18G21G29G26G 5G10G 9G30G22
  22819459.2134   -8637758.90247  -6720151.52245                  22819457.8774
       -73.2814
  20986087.4924  -21626790.10148 -16845487.98046                  20986084.6264
      2432.5444
  22504983.9444  -13224641.13747 -10297743.44345                  22504980.5644
     -1008.5994
  22971124.3534   -9993528.56147  -7997712.77945                  22971122.8774
      -323.4524
  22862869.1674  -11767615.61847  -9416600.30245                  22862867.1144
      -590.2644
  20102859.1704  -26118950.26747 -20345936.10747                  20102856.4374
      1422.4904
  24485097.3354   -6638466.82346  -5071740.27443                  24485096.2694
     -3075.0634
  21051064.3504  -24090919.55448 -18751495.73547                  21051061.6634
     -1461.4014
  22006203.8714  -15397632.92447 -11981998.42846                  22006201.1194
      3432.8864
  24091054.2274   -3212399.20047  -2484352.71844                  24091052.3684
      3609.3514
 06  6 29  4 46  0.0000000  0 10G15G18G21G29G26G 5G10G 9G30G22
  22819916.0814   -8635355.37147  -6718278.63545                  22819915.3594
       -86.5624
  20972241.6694  -21699549.87548 -16902183.89246                  20972238.3854
      2418.5114
  22510767.4744  -13194249.23247 -10274061.46845                  22510764.7864
     -1017.1974
  22972982.2924   -9983761.95547  -7990102.46644                  22972981.6244
      -327.3544
  22866247.8744  -11749856.59247  -9402762.08645                  22866246.4874
      -593.3114
  20094791.1724  -26161350.11648 -20378974.93947                  20094788.3234
      1404.4394
  24502664.3724   -6546152.95247  -4999807.54544                  24502663.8404
     -3078.7704
  21059421.3204  -24047005.27248 -18717276.82547                  21059419.0004
     -1465.8894
  21986630.3784  -15500490.43948 -12062147.10346                  21986628.0404
      3424.6394
  24070459.2664   -3320630.44747  -2568688.68044                  24070455.4424
      3606.3144
 06  6 29  4 46 30.0000000  0 10G15G18G21G29G26G 5G10G 9G30G22
  22820450.1054   -8632549.93347  -6716092.61745                  22820448.8084
      -100.5224
  20958476.8484  -21771883.02148 -16958547.37647                  20958474.2834
      2403.7504
  22516600.0994  -13163597.59647 -10250177.11245                  22516597.6004
     -1026.1964
  22974864.8724   -9973871.02447  -7982395.27345                  22974864.1314
      -331.9484
  22869647.0484  -11732000.63947  -9388848.41445                  22869644.4384
      -597.0704
  20086826.5174  -26203203.27848 -20411587.79747                  20086823.7214
      1385.7724
  24520253.0484   -6453723.83546  -4927784.92444                  24520253.1114
     -3082.9934
  21067803.4664  -24002955.86048 -18682952.65847                  21067800.9424
     -1470.7714
  21967105.0124  -15603096.96447 -12142100.20446                  21967102.5254
      3415.7814
  24049881.2784   -3428764.24647  -2652948.71444                  24049878.6524
      3602.6514
 06  6 29  4 47  0.0000000  0 10G15G18G21G29G26G 5G10G 9G30G22
  22821060.8944   -8629338.68147  -6713590.35144                  22821059.9894
      -113.9554
  20944795.4634  -21843781.26847 -17014571.96247                  20944792.0584
      2389.1654
  22522482.4584  -13132683.34947 -10226088.11445                  22522480.3164
     -1035.0294
  22976772.1214   -9963848.56447  -7974585.55645                  22976771.3724
      -336.5384
  22873063.9474  -11714040.96047  -9374853.87545                  22873062.5274
      -600.5914
  20078967.5814  -26244502.96648 -20443769.35647                  20078965.0124
      1367.3054
  24537863.2674   -6361175.88346  -4855669.71643                  24537863.9384
     -3087.0414
  21076212.3714  -23958767.81448 -18648520.42447                  21076209.2814
     -1475.3914
  21947628.5664  -15705445.23147 -12221852.06546                  21947626.5304
      3407.1044
  24029324.5554   -3536792.78847  -2737126.71144                  24029321.1394
      3598.8624
 06  6 29  4 47 30.0000000  0 10G15G18G21G29G26G 5G10G 9G30G22
  22821749.8764   -8625721.09647  -6710771.45944                  22821748.7994
      -127.2564
  20931197.4084  -21915239.68048 -17070253.81847                  20931194.5274
      2374.7614
  22528415.6954  -13101506.91247 -10201794.80845                  22528413.0574
     -1043.5204
  22978705.4914   -9953690.64847  -7966670.30645                  22978704.2964
      -340.6794
  22876502.3684  -11695973.66547  -9360775.48045                  22876500.3834
      -603.8774
  20071214.3924  -26285245.33048 -20475516.64747                  20071211.8634
      1348.9164
  24555498.0674   -6268508.79246  -4783461.69143                  24555498.1984
     -3090.6794
  21084647.6684  -23914440.54448 -18613979.69447                  21084644.7674
     -1479.6684
  21928202.7024  -15807528.89447 -12301397.74246                  21928200.6244
      3398.3504
  24008788.4914   -3644710.68747  -2821218.49744                  24008784.8184
      3595.5234
 06  6 29  4 48  0.0000000  0 10G15G18G21G29G26G 5G10G 9G30G22
  22822514.2274   -8621703.81647  -6707641.11445                  22822512.8854
      -140.3814
  20917682.5454  -21986260.23047 -17125594.49547                  20917679.6294
      2360.2544
  22534396.9384  -13070075.24847 -10177302.57645                  22534394.1734
     -1051.6214
  22980663.2804   -9943400.57047  -7958652.08245                  22980662.1414
      -345.0004
  22879960.1704  -11677802.08047  -9346615.85345                  22879958.4344
      -607.2074
  20063566.8954  -26325433.65048 -20506832.22247                  20063564.1354
      1330.6054
  24573153.7294   -6175729.17647  -4711165.96043                  24573153.9964
     -3094.2434
  21093107.8174  -23869981.13748 -18579335.99047                  21093105.1834
     -1483.9164
  21908826.6694  -15909350.20547 -12380738.98546                  21908824.5474
      3389.8584
  23988273.2384   -3752520.04547  -2905225.70944                  23988269.6394
      3591.9974
 06  6 29  4 48 30.0000000  0 10G15G18G21G29G26G 5G10G 9G30G22
  22823353.8674   -8617285.35047  -6704198.17645                  22823354.2394
      -154.0234
  20904252.7974  -22056837.27447 -17180589.57747                  20904249.4544
      2345.1224
  22540426.6684  -13038387.91447 -10152611.17144                  22540424.1714
     -1060.5964
  22982647.5894   -9932973.14447  -7950526.83745                  22982646.4074
      -349.9074
  22883438.8364  -11659521.69247  -9332371.42245                  22883437.1304
      -611.1824
  20056025.6984  -26365063.29048 -20537712.44947                  20056023.1174
      1311.6314
  24590829.6964   -6082836.17346  -4638781.96743                  24590830.5924
     -3098.3984
  21101593.7844  -23825387.88148 -18544588.00047                  21101590.9324
     -1488.7114
  21889501.7444  -16010902.96347 -12459870.97346                  21889499.8294
      3380.5274
  23967779.3754   -3860215.06447  -2989143.86344                  23967775.8194
      3587.8474
 06  6 29  4 49  0.0000000  0 10G15G18G21G29G26G 5G10G 9G30G22
  22824272.2144   -8612466.83547  -6700443.52345                  22824270.6834
      -167.0464
  20890907.1704  -22126967.32547 -17235236.34847                  20890903.6384
      2330.4404
  22546504.6174  -13006446.76847 -10127722.00845                  22546502.7564
     -1068.7404
  22984658.7174   -9922405.99647  -7942292.71445                  22984656.9154
      -354.2924
  22886938.4034  -11641130.57547  -9318040.70445                  22886936.4274
      -614.6684
  20048591.0504  -26404132.37547 -20568155.89247                  20048588.3274
      1293.1694
  24608528.3414   -5989831.17746  -4566310.62543                  24608528.6374
     -3101.7874
  21110104.6894  -23780662.49048 -18509737.02947                  21110101.6804
     -1492.7984
  21870228.6734  -16112183.83047 -12538791.08546                  21870226.5534
      3371.6164
  23947308.4944   -3967792.43947  -3072970.31344                  23947304.1494
      3584.2044
 06  6 29  4 49 30.0000000  0 10G15G18G21G29G26G 5G10G 9G30G22
  22825263.6524   -8607253.99147  -6696381.57645                  22825262.6874
      -180.2694
  20877646.3864  -22196651.45147 -17289535.64747                  20877643.5074
      2315.3714
  22552630.5884  -12974258.63747 -10102640.35345                  22552627.7114
     -1077.0174
  22986696.6534   -9911701.77247  -7933951.79345                  22986693.9404
      -359.1064
  22890458.2024  -11622631.22747  -9303625.66345                  22890457.1794
      -618.3844
  20041262.7984  -26442643.47648 -20598164.52647                  20041260.3894
      1274.4384
  24626246.4474   -5896720.21846  -4493756.69343                  24626247.4564
     -3105.5034
  21118639.6384  -23735810.61348 -18474787.51747                  21118637.0864
     -1497.1194
  21851007.1674  -16213193.60448 -12617499.96946                  21851005.9074
      3362.5004
  23926859.1284   -4075253.50847  -3156706.14745                  23926855.4584
      3580.1224
 06  6 29  4 49 59.9990000  0 10G15G18G21G29G26G 5G10G 9G30G22
  22826330.6814   -8601645.10547  -6692011.01745                  22826330.7094
      -193.5894
  20864472.9444  -22265880.96347 -17343480.70347                  20864469.5334
      2300.2444
  22558802.3484  -12941823.10447 -10077365.91345                  22558799.7084
     -1085.2694
  22988760.3084   -9900855.18547  -7925499.91045                  22988758.3814
      -363.8434
  22894000.5584  -11604019.10547  -9289122.72345                  22893998.7934
      -622.2704
  20034041.5294  -26480590.24848 -20627733.44947                  20034038.8914
      1255.6054
  24643984.9504   -5803504.59046  -4421121.28843                  24643985.6534
     -3109.0724
  21127198.6804  -23690831.85348 -18439739.15847                  21127195.7194
     -1501.3334
  21831838.7714  -16313921.85647 -12695989.47146                  21831836.9204
      3353.1454
  23906434.4964   -4182588.09047  -3240343.40245                  23906430.1074
      3575.9574
 06  6 29  4 50 29.9990000  0 10G15G18G21G29G26G 5G10G 9G30G22
  22827472.4964   -8595643.94447  -6687334.80045                  22827472.3654
      -206.3624
  20851384.6224  -22334660.25848 -17397074.94447                  20851381.2914
      2285.1764
  22565021.4664  -12909143.23047 -10051901.08945                  22565018.6754
     -1093.2084
  22990851.1484   -9889866.14447  -7916937.05245                  22990849.6864
      -368.5304
  22897563.7454  -11585293.75647  -9274531.57445                  22897562.4324
      -625.9384
  20026927.5734  -26517976.05248 -20656865.24547                  20026924.5474
      1236.9484
  24661744.5444   -5710182.40146  -4348402.79243                  24661744.5324
     -3112.4374
  21135781.7024  -23645727.23848 -18404592.73847                  21135779.1344
     -1505.3664
  21812723.3834  -16414375.03648 -12774264.66846                  21812721.0794
      3343.9114
  23886031.4324   -4289802.96447  -3323887.40445                  23886027.6834
      3571.8314
 06  6 29  4 50 59.9990000  0 10G15G18G21G29G26G 5G10G 9G30G22
  22828687.6794   -8589256.04347  -6682357.25444                  22828688.1694
      -219.5074
  20838381.9674  -22402987.66448 -17450317.05547                  20838378.7244
      2269.8974
  22571285.5214  -12876226.29947 -10026251.54645                  22571283.1954
     -1101.2164
  22992969.0614   -9878736.78247  -7908264.84445                  22992967.3344
      -373.4914
  22901147.8184  -11566457.98547  -9259854.37545                  22901146.7944
      -629.7904
  20019919.7044  -26554801.65048 -20685560.51547                  20019916.3684
      1218.0084
  24679521.3884   -5616762.09746  -4275607.78743                  24679521.7294
     -3115.8744
  21144387.5174  -23600503.62348 -18369353.56647                  21144384.9944
     -1509.5614
  21793660.9234  -16514549.87247 -12852322.92446                  21793658.2154
      3334.3564
  23865652.3814   -4396895.05947  -3407335.77545                  23865648.3684
      3567.5934
 06  6 29  4 51 29.9990000  0  9G15G18G21G29G26G 5G 9G30G22
  22829978.0084   -8582480.13047  -6677077.34045                  22829977.5964
      -232.3144
  20825467.0294  -22470857.58748 -17503202.71147                  20825463.5244
      2254.5414
  22577593.9824  -12843071.39147 -10000416.58445                  22577591.1864
     -1109.2044
  22995114.6824   -9867462.28847  -7899479.55545                  22995112.9564
      -378.3894
  22904753.7454  -11547507.04247  -9245087.42745                  22904752.8014
      -633.7014
  20013019.4094  -26591062.85748 -20713815.99946                  20013016.4174
      1199.1754
  21153016.3814  -23555159.82248 -18334020.71347                  21153013.4564
     -1513.4624
  21774652.3144  -16614440.64947 -12930159.85846                  21774649.9284
      3324.8344
  23845297.9004   -4503858.75347  -3490684.05545                  23845293.6884
      3563.1894
 06  6 29  4 51 59.9990000  0  9G15G18G21G29G26G 5G 9G30G22
  22831341.4624   -8575317.51447  -6671496.07545                  22831340.2734
      -245.2054
  20812639.6474  -22538266.51448 -17555729.14147                  20812635.7654
      2239.2584
  22583948.3044  -12809680.53547  -9974397.75645                  22583945.5984
     -1116.9684
  22997288.5124   -9856040.42147  -7890579.42145                  22997286.4014
      -383.1644
  22908382.7164  -11528439.19247  -9230229.38345                  22908381.6754
      -637.5244
  20006226.6114  -26626757.77048 -20741630.21346                  20006223.9624
      1180.3964
  21161667.1954  -23509697.26848 -18298595.36846                  21161664.5764
     -1517.4124
  21755698.1574  -16714043.90147 -13007772.74746                  21755696.0424
      3315.2734
  23824968.1394   -4610690.42247  -3573929.45645                  23824964.4204
      3558.8774
 06  6 29  4 52 29.9990000  0  9G15G18G21G29G26G 5G 9G30G22
  22832777.1024   -8567769.64747  -6665614.61944                  22832776.2604
      -257.7204
  20799900.5174  -22605211.36648 -17607893.96047                  20799896.5874
      2223.9844
  22590348.0494  -12776056.36147  -9948197.13345                  22590344.2344
     -1124.4294
  22999490.0484   -9844469.05447  -7881562.80645                  22999488.7364
      -387.9054
  22912033.6744  -11509252.43447  -9215278.69545                  22912032.1204
      -641.2704
  19999542.0694  -26661884.70048 -20769001.84647                  19999539.6844
      1161.6704
  21170341.1824  -23464116.85448 -18263078.20646                  21170338.5774
     -1521.0554
  21736799.9374  -16813356.36148 -13085159.05946                  21736797.7494
      3305.7234
  23804664.2134   -4717387.23847  -3657069.81744                  23804660.5384
      3554.4734
 06  6 29  4 52 59.9990000  0  9G15G18G21G29G26G 5G 9G30G22
  22834285.8004   -8559840.33647  -6659435.94544                  22834285.0004
      -270.6494
  20787249.8804  -22671691.81248 -17659696.89947                  20787245.8624
      2208.1844
  22596790.0534  -12742202.97347  -9921817.88045                  22596786.5934
     -1132.2904
  23001720.5714   -9832748.27847  -7872429.78045                  23001719.0544
      -393.2574
  22915708.0084  -11489947.32547  -9200235.80245                  22915706.2864
      -645.4834
  19992965.7604  -26696444.31448 -20795931.40047                  19992963.3424
      1142.4714
  21179036.3304  -23418422.79348 -18227472.44146                  21179033.8264
     -1525.0344
  21717957.0784  -16912376.22148 -13162317.35746                  21717954.8694
      3295.7374
  23784386.7454   -4823948.25847  -3740104.32744                  23784382.9894
      3549.6884
 06  6 29  4 53 29.9990000  0  9G15G18G21G29G26G 5G 9G30G22
  22835868.1204   -8551525.93147  -6652957.18644                  22835867.4534
      -283.5214
  20774688.6924  -22737699.57048 -17711131.51747                  20774684.7214
      2192.4514
  22603275.6374  -12708117.33947  -9895257.67345                  22603272.7904
     -1139.9954
  23003980.6224   -9820871.24447  -7863174.96545                  23003979.2474
      -398.5454
  22919406.5644  -11470517.22747  -9185095.56045                  22919403.4714
      -649.7274
  19986498.6364  -26730430.13448 -20822413.84546                  19986495.7794
      1123.3794
  21187753.6304  -23372611.29348 -18191775.18246                  21187751.5284
     -1528.9454
  21699171.0944  -17011095.80748 -13239241.67146                  21699169.5154
      3285.7134
  23764136.7954   -4930365.24547  -3823026.62644                  23764132.1884
      3544.8394
 06  6 29  4 53 59.9990000  0  9G15G18G21G29G26G 5G 9G30G22
  22837522.0754   -8542835.22747  -6646185.25544                  22837521.6334
      -295.6454
  20762217.0934  -22803238.92748 -17762201.14547                  20762212.7954
      2177.0904
  22609804.6094  -12673809.23347  -9868524.10345                  22609801.3484
     -1147.0024
  23006269.6124   -9808842.83447  -7853802.21945                  23006268.2744
      -403.3064
  22923125.7974  -11450967.19547  -9169861.84745                  22923124.3454
      -653.4384
  19980139.1614  -26763847.77148 -20848453.56047                  19980136.7384
      1104.6734
  21196492.2484  -23326690.83748 -18155993.01146                  21196489.9964
     -1532.2564
  21680441.8104  -17109519.08548 -13315935.10046                  21680439.7054
      3275.9964
  23743912.4624   -5036642.13047  -3905839.74744                  23743907.7934
      3540.4744
 06  6 29  4 54 29.9990000  0  9G15G18G21G29G26G 5G 9G30G22
  22839246.6134   -8533772.04547  -6639123.05044                  22839246.0934
      -308.3154
  20749834.5594  -22868308.89048 -17812905.00547                  20749831.2424
      2161.0894
  22616374.9884  -12639283.40747  -9841620.88745                  22616371.5774
     -1154.5364
  23008587.2774   -9796663.39147  -7844311.78845                  23008585.6574
      -408.5354
  22926867.2704  -11431297.83747  -9154535.09245                  22926866.8524
      -657.7644
  19973888.1714  -26796697.85048 -20874051.01447                  19973885.8394
      1085.4984
  21205250.7894  -23280664.98648 -18120128.73846                  21205248.4034
     -1536.0014
  21661768.8404  -17207644.53048 -13392396.46246                  21661766.6854
      3265.7674
  23723714.9814   -5142778.12547  -3988543.08744                  23723711.1854
      3535.4394
 06  6 29  4 54 59.9990000  0  9G15G18G21G29G26G 5G 9G30G22
  22841043.7254   -8524327.60347  -6631763.75144                  22841043.2114
      -321.0404
  20737544.1584  -22932896.36648 -17863232.91547                  20737540.3234
      2144.9614
  22622987.4404  -12604531.47047  -9814541.46145                  22622984.5484
     -1161.9874
  23010935.8734   -9784320.33447  -7834693.84945                  23010934.7624
      -414.0534
  22930636.0594  -11411496.90947  -9139105.83245                  22930634.9774
      -662.1344
  19967746.8574  -26828968.49748 -20899196.97046                  19967744.1494
      1066.1574
  21214031.2624  -23234524.88748 -18084175.41746                  21214028.6264
     -1539.7514
  21643155.2314  -17305458.50548 -13468615.10746                  21643153.5724
      3255.3074
  23703547.5624   -5248759.37847  -4071125.82244                  23703543.1594
      3530.1814
 06  6 29  4 55 29.9990000  0  9G15G18G21G29G26G 5G 9G30G22
  22842912.8574   -8514506.16547  -6624110.69044                  22842912.7764
      -333.6964
  20725345.1084  -22997001.02448 -17913184.60647                  20725341.2784
      2128.6134
  22629643.0284  -12569557.71447  -9787289.21345                  22629640.4604
     -1169.6444
  23013315.8594   -9771814.50547  -7824949.07845                  23013314.7224
      -419.6834
  22934429.4144  -11391565.26347  -9123574.72445                  22934427.5584
      -666.6654
  19961716.4924  -26860660.83848 -20923892.29347                  19961713.1134
      1046.6754
  21222832.0634  -23188274.70148 -18048136.32146                  21222829.4244
     -1543.5304
  21624601.5344  -17402960.38348 -13544590.55646                  21624599.6264
      3244.7364
  23683409.1314   -5354585.52447  -4153587.71344                  23683404.7554
      3524.9124
 06  6 29  4 55 59.9990000  0  9G15G18G21G29G26G 5G 9G30G22
  22844852.6874   -8504312.98247  -6616167.97944                  22844852.7614
      -345.8944
  20713238.5244  -23060623.65448 -17962760.67847                  20713234.5614
      2112.6814
  22636339.5394  -12534368.59947  -9759869.12845                  22636336.9104
     -1176.5534
  23015726.6994   -9759147.40547  -7815078.63145                  23015724.9564
      -424.9614
  22938247.0474  -11371504.92647  -9107943.36345                  22938244.9374
      -670.8594
  19955795.5124  -26891777.36648 -20948138.92346                  19955791.2834
      1027.6034
  21231653.2654  -23141919.25648 -18012015.23646                  21231650.4264
     -1546.9924
  21606107.2464  -17500150.71548 -13620323.25647                  21606104.8224
      3234.4044
  23663300.6544   -5460257.40647  -4235929.40544                  23663295.8814
      3519.7364
 06  6 29  4 56 29.9990000  0  9G15G18G21G29G26G 5G 9G30G22
  22846861.6574   -8493754.37247  -6607940.52244                  22846861.2874
      -357.6954
  20701222.8614  -23123766.30848 -18011962.74547                  20701218.6784
      2096.9824
  22643075.6304  -12498971.09547  -9732286.64545                  22643072.5324
     -1183.0224
  23018166.4954   -9746321.64847  -7805084.56845                  23018165.2664
      -429.8784
  22942088.3984  -11351318.93147  -9092214.05845                  22942085.9024
      -674.6004
  19949982.7024  -26922321.24548 -20971939.34746                  19949979.1304
      1008.8724
  21240493.0864  -23095464.70448 -17975816.88946                  21240490.4384
     -1549.8244
  21587671.2984  -17597030.71348 -13695814.13546                  21587669.1804
      3224.4194
  23643221.1944   -5565776.61547  -4318152.10944                  23643216.5174
      3514.9854
 06  6 29  4 56 59.9990000  0  9G15G18G21G29G26G 5G 9G30G22
  22848939.6934   -8482835.65347  -6599432.46144                  22848939.0134
      -369.9224
  20689298.5074  -23186429.09848 -18060790.89447                  20689294.4974
      2080.8014
  22649849.8924  -12463370.77247  -9704546.17044                  22649847.1014
     -1190.0004
  23020637.3444   -9733338.80147  -7794968.11245                  23020636.2464
      -435.3324
  22945953.5044  -11331008.73147  -9076387.98345                  22945951.3194
      -679.0584
  19944278.6944  -26952294.63248 -20995295.22047                  19944276.8324
       989.5954
  21249350.6204  -23048916.22448 -17939545.34446                  21249348.4154
     -1553.1404
  21569294.9334  -17693600.55248 -13771063.33946                  21569292.4404
      3213.9114
  23623170.7564   -5671143.11947  -4400255.85144                  23623166.2794
      3509.6684
 06  6 29  4 57 29.9990000  0  9G15G18G21G29G26G 5G 9G30G22
  22851088.4344   -8471545.25647  -6590634.71844                  22851086.7524
      -382.5344
  20677468.3504  -23248596.25648 -18109232.83246                  20677464.1954
      2064.0434
  22656664.1194  -12427556.99647  -9676639.32144                  22656661.9894
     -1197.3684
  23023141.1824   -9720183.59447  -7784717.32945                  23023139.8154
      -441.4014
  22949844.4774  -11310559.53947  -9060453.59645                  22949842.7024
      -683.9994
  19938686.7054  -26981682.99948 -21018195.23747                  19938684.9134
       969.8104
  21258229.1814  -23002261.57648 -17903191.10046                  21258226.0634
     -1556.8954
  21550980.3814  -17789844.04948 -13846058.24646                  21550977.8654
      3202.6174
  23603152.0814   -5776340.91847  -4482228.13844                  23603146.9124
      3503.7454
 06  6 29  4 57 59.9990000  0  9G15G18G21G29G26G 5G 9G30G22
  22853304.8154   -8459898.73946  -6581559.54444                  22853304.1324
      -394.2044
  20665730.6444  -23310278.89648 -18157297.22147                  20665726.5464
      2047.9104
  22663516.9584  -12391545.44347  -9648578.42644                  22663514.2124
     -1203.7704
  23025674.9944   -9706868.03147  -7774341.62245                  23025673.0214
      -446.5534
  22953759.4694  -11289983.49047  -9044420.36545                  22953758.9354
      -688.0574
  19933203.0004  -27010498.93448 -21040649.18747                  19933201.1384
       950.8204
  21267124.4664  -22955516.17048 -17866766.12446                  21267121.8884
     -1559.7124
  21532725.6034  -17885771.86748 -13920807.17846                  21532723.2134
      3192.2174
  23583163.5954   -5881380.41847  -4564077.03444                  23583158.6634
      3498.5844
 06  6 29  4 58 29.9990000  0  9G15G18G21G29G26G 5G 9G30G22
  22855589.7604   -8447888.63247  -6572201.02644                  22855589.4554
      -406.3284
  20654087.2194  -23371465.08348 -18204974.76447                  20654083.3104
      2031.2304
  22670408.9104  -12355330.34647  -9620358.91544                  22670406.5934
     -1210.4304
  23028241.7904   -9693380.99147  -7763832.27545                  23028239.5984
      -452.2954
  22957701.1074  -11269269.73047  -9028279.82045                  22957700.7304
      -692.7494
  19927830.6544  -27038732.05048 -21062649.00947                  19927828.1824
       931.3724
  21276038.5284  -22908672.48148 -17830264.55646                  21276035.4904
     -1563.0524
  21514533.6714  -17981371.26848 -13995300.18647                  21514531.6364
      3181.2164
  23563207.5724   -5986249.54947  -4645793.22644                  23563203.1134
      3492.7394
 06  6 29  4 58 59.9990000  0  9G15G18G21G29G26G 5G 9G30G22
  22857943.0274   -8435521.26147  -6562564.15244                  22857942.1704
      -418.1254
  20642537.8424  -23432156.51348 -18252266.78547                  20642534.2774
      2014.7954
  22677338.1014  -12318917.43747  -9591985.22644                  22677335.2004
     -1216.9434
  23030840.3724   -9679725.07247  -7753191.34445                  23030838.9434
      -458.0184
  22961668.1584  -11248421.08947  -9012034.18145                  22961667.8014
      -697.0614
  19922568.1364  -27066385.64148 -21084197.24347                  19922565.4544
       912.1534
  21284970.4174  -22861736.35948 -17793690.98746                  21284967.7564
     -1565.9914
  21496404.1834  -18076644.39848 -14069538.97147                  21496401.8884
      3170.3564
  23543283.5554   -6090949.81847  -4727377.80744                  23543278.8384
      3487.2714
